GFSMA_850_temp_114.txt.gz
Temp
16 16 15 15 15 14 14 14 13 13 13 13 13 13 13 13 13 13 13 14 13 13 13 13 12 13 13 12 12 12 11 11 10 10 12 11 11 12 12 12 12 12 12
16 17 15 14 15 14 14 14 14 13 13 13 13 13 13 13 13 12 13 13 13 13 13 13 13 12 13 12 12 12 12 11 10 9 11 12 11 11 12 12 12 12 12
15 17 17 15 14 14 14 14 14 13 13 13 13 13 13 12 12 12 12 12 13 13 12 12 11 11 12 12 11 11 12 10 9 9 9 11 10 10 12 12 12 12 12
17 16 17 17 14 14 14 14 14 14 13 13 13 13 13 12 12 12 12 12 11 13 12 11 11 11 11 11 11 9 8 8 8 9 9 10 11 11 11 11 11 11 11
18 17 15 17 16 15 16 14 13 14 13 13 13 13 13 12 12 12 12 12 11 12 12 11 11 10 10 10 10 9 8 8 8 8 9 9 11 12 12 11 11 11 11
17 17 14 14 16 16 16 15 14 13 13 13 13 12 12 12 12 12 11 11 11 12 12 11 11 10 10 10 10 9 9 8 8 8 7 8 10 12 11 11 11 10 11
18 16 15 16 18 18 16 15 14 13 13 13 13 12 12 13 13 11 11 11 11 12 12 11 11 11 11 10 10 10 9 8 8 8 8 8 8 10 11 11 10 10 10
18 18 18 18 18 18 15 15 15 13 13 13 13 12 12 12 12 11 11 11 12 12 12 12 11 11 10 10 10 10 9 9 8 8 8 8 8 9 11 11 11 10 10
19 19 19 18 18 17 17 14 15 15 13 13 12 12 12 13 14 12 11 11 11 12 12 12 11 10 10 10 10 10 9 9 9 8 8 8 8 10 10 10 10 10 11
18 19 19 18 18 17 17 16 14 15 13 13 12 12 13 14 13 13 11 12 12 11 12 12 11 11 10 10 10 10 11 9 9 9 9 8 8 8 8 9 10 11 11
18 17 19 18 18 18 17 16 14 14 15 13 14 12 12 12 12 12 13 12 12 12 12 12 12 11 11 10 10 10 10 9 9 9 9 9 8 7 7 7 8 10 10
18 18 18 17 17 18 17 17 15 14 15 14 13 12 12 12 11 11 11 11 12 11 11 12 12 12 11 10 10 10 9 10 9 9 9 9 8 8 8 7 8 10 10
12 15 17 17 16 17 17 16 16 14 14 14 12 12 12 12 12 11 11 11 11 11 10 11 12 11 11 10 10 10 10 10 9 9 8 9 8 8 8 7 7 8 9
13 13 14 17 16 17 17 17 16 16 14 14 13 13 12 12 12 12 11 12 11 10 10 11 12 12 11 10 10 10 10 10 9 9 8 8 8 8 8 8 7 7 7
12 13 13 13 15 16 17 17 17 16 15 15 14 13 13 13 12 11 11 11 11 11 10 10 10 11 12 10 10 10 10 10 10 9 10 9 8 8 8 8 7 7 7
13 13 12 13 14 16 17 16 16 16 14 14 13 13 12 12 12 12 11 11 11 11 10 10 10 10 11 11 10 10 10 10 10 10 10 9 9 8 8 8 7 7 7
13 13 12 12 12 13 14 16 16 15 14 13 12 12 12 12 12 11 11 11 10 10 10 10 10 9 10 10 10 10 10 10 9 10 10 9 9 9 8 8 8 8 8
13 13 13 12 12 13 13 13 15 13 13 12 12 12 11 11 11 11 10 10 10 10 10 10 9 9 10 10 10 9 9 9 9 9 10 10 9 9 9 8 8 8 8
12 11 12 12 12 12 12 13 13 12 11 11 11 10 10 10 10 10 10 10 10 10 10 9 9 9 9 10 10 9 9 9 9 9 9 10 9 9 9 8 8 8 8
11 11 10 11 11 11 11 11 11 11 11 10 10 10 10 9 9 9 9 10 9 10 10 9 9 9 9 10 9 9 9 9 9 8 9 11 9 9 9 8 8 8 8
10 10 10 11 11 11 11 10 10 10 9 9 8 9 9 9 9 9 9 9 9 9 9 9 9 9 9 8 9 9 9 9 8 8 9 10 9 9 9 9 9 9 8
9 9 9 9 9 9 9 9 9 9 9 8 8 8 9 8 9 9 9 9 9 9 9 9 9 9 9 9 9 9 8 8 8 8 8 9 9 9 9 9 9 8 9
5 6 6 6 7 7 8 7 8 8 8 7 8 8 8 8 8 9 9 9 9 9 9 8 9 9 9 9 9 9 8 9 8 7 8 8 8 7 8 8 8 8 8
1 2 3 3 4 4 7 7 7 7 7 7 7 7 7 7 8 9 9 8 8 9 9 9 9 8 8 9 9 9 10 8 7 7 7 7 6 6 6 6 6 6 7
0 0 1 1 2 0 1 2 3 5 4 5 5 6 6 7 8 8 8 8 7 7 7 9 8 8 8 8 8 8 8 7 6 6 6 7 4 3 2 3 3 1 3
-2 -2 -1 -2 -2 -2 -1 1 1 1 1 1 1 2 3 4 5 6 6 6 5 5 5 5 5 6 7 8 8 8 8 7 6 5 5 6 5 2 -3 -3 -3 -1 -2

GFSMA_850_temp_117.txt.gz
Temp
16 15 16 16 15 15 14 14 14 14 14 14 14 14 14 14 15 15 14 14 15 14 14 13 13 13 13 13 13 12 12 11 12 12 12 11 12 12 12 13 13 13 13
15 16 16 17 16 16 15 15 14 14 14 14 14 13 14 14 14 14 14 14 14 14 13 13 13 13 12 13 12 12 12 11 11 11 11 10 11 12 12 12 12 13 12
15 15 16 16 17 17 15 15 14 14 14 14 14 13 13 14 14 14 14 14 13 14 13 13 12 12 12 11 11 11 11 11 10 9 9 10 10 12 12 12 12 12 12
16 15 16 16 16 17 15 15 14 14 14 14 14 14 13 13 13 13 13 14 13 13 13 13 13 12 12 10 11 10 9 9 8 9 9 9 8 10 12 12 12 12 11
19 16 14 16 16 16 15 14 14 14 14 14 14 14 13 13 13 13 13 13 13 12 12 13 12 12 12 11 11 10 9 9 9 8 8 8 7 8 11 12 12 12 11
18 17 14 14 16 16 15 14 14 14 14 14 13 13 13 13 13 13 13 13 12 12 11 12 12 12 12 10 9 10 10 9 8 8 8 7 7 8 10 12 12 11 11
15 15 15 15 16 17 17 14 14 14 14 14 14 13 13 13 13 13 13 13 13 12 12 11 11 12 12 11 11 11 10 10 9 9 8 8 8 9 11 11 12 11 11
15 15 15 15 15 16 16 14 13 14 14 14 13 13 13 13 13 13 13 13 12 12 11 12 11 12 11 11 11 10 10 10 9 9 9 8 8 8 10 12 12 11 11
15 15 15 16 15 16 17 14 13 14 13 14 14 13 13 15 16 14 13 12 12 12 11 12 11 12 11 11 10 11 10 10 10 9 9 8 8 8 9 11 12 11 11
15 15 15 15 15 16 16 18 16 15 14 14 13 14 14 16 17 16 14 13 12 12 12 12 13 12 12 11 11 11 10 10 10 9 9 9 8 8 8 9 11 11 11
15 15 15 15 14 14 17 18 16 14 13 13 13 13 13 14 14 15 15 13 12 12 12 12 13 13 12 11 11 11 11 10 9 9 9 9 9 8 8 9 11 11 11
14 15 14 14 14 14 14 16 17 15 13 12 13 12 12 13 14 14 13 14 13 13 12 11 11 13 13 13 12 11 10 10 10 9 9 9 9 9 9 8 8 10 9
14 14 13 14 14 14 16 16 16 15 12 13 13 13 12 13 13 14 13 13 14 14 13 12 11 13 13 13 12 11 11 10 10 9 10 9 9 9 9 8 7 8 8
14 14 14 13 14 13 15 16 15 15 14 14 13 13 12 13 13 13 13 13 13 13 13 12 11 12 13 12 12 12 10 10 10 9 10 9 9 9 8 8 8 7 7
15 14 13 13 12 13 13 15 17 17 15 15 14 12 14 13 13 13 13 13 12 13 13 12 11 11 12 12 12 12 11 10 9 10 9 9 9 9 9 8 8 7 7
15 14 13 13 12 12 13 13 14 15 15 15 16 16 13 13 12 13 13 12 12 12 12 13 12 12 11 11 12 12 11 10 9 10 9 9 9 8 8 9 8 8 7
13 13 13 13 12 12 12 13 13 15 13 13 15 13 14 12 12 13 12 12 12 11 11 12 11 11 11 10 11 11 11 10 10 10 10 10 9 9 8 8 8 8 7
13 13 13 13 12 12 12 12 13 13 13 13 14 14 12 13 12 12 12 12 11 11 11 10 10 10 10 10 10 10 10 10 10 10 10 10 10 9 9 8 8 8 8
12 12 12 12 12 12 12 12 12 12 13 13 14 13 12 12 11 11 11 11 11 11 11 10 10 10 10 10 10 10 10 10 10 10 10 9 10 10 9 9 8 8 8
12 13 12 12 12 12 12 12 12 12 12 12 12 11 11 11 10 10 10 10 10 10 10 10 10 10 9 10 9 9 9 10 10 9 9 9 9 10 9 9 9 8 8
9 9 10 11 11 11 11 11 11 11 11 11 11 10 10 10 10 10 10 10 10 9 9 9 9 9 9 9 9 9 9 9 9 9 9 9 9 9 9 9 8 8 8
5 6 7 9 9 10 9 9 10 10 10 10 10 9 9 9 9 9 9 8 9 9 9 8 8 9 9 9 9 9 9 9 8 9 9 8 9 9 9 9 9 9 8
1 2 2 4 6 8 7 8 8 8 8 8 8 8 8 8 8 8 8 8 8 9 9 8 7 8 9 9 9 9 8 8 9 8 9 8 9 8 8 8 8 9 8
-1 -0 -1 -0 1 2 3 4 5 5 6 4 6 7 7 8 7 8 8 8 8 8 7 7 8 8 8 9 8 8 9 9 8 8 8 8 7 8 7 7 8 8 8
-2 -2 -2 -2 -1 -1 1 1 2 2 1 1 2 3 3 4 5 5 5 6 6 5 5 6 7 8 8 8 8 8 8 8 8 7 7 7 6 5 5 5 5 7 8
-4 -3 -3 -4 -3 -2 -0 -1 0 0 -0 0 -0 0 1 2 2 2 3 4 3 4 4 4 4 4 4 6 7 8 7 7 8 6 6 5 5 4 -0 -1 1 1 2

GFSMA_850_temp_123.txt.gz
Temp
17 17 17 17 17 17 16 16 16 16 16 16 16 16 15 15 15 14 14 15 14 14 15 15 14 14 13 13 14 13 13 12 12 12 11 11 10 10 11 12 12 12 12
17 16 15 16 16 16 16 16 16 16 16 16 16 15 16 15 14 14 14 14 15 15 15 15 14 14 13 13 13 13 12 12 12 12 12 11 10 10 10 12 12 12 12
17 17 15 16 16 16 16 16 16 16 15 15 15 15 14 14 14 14 14 14 14 14 14 15 14 14 13 13 13 13 13 13 11 11 11 11 10 9 10 12 12 12 12
16 16 16 16 16 15 16 16 16 16 16 15 15 15 14 14 14 14 14 14 14 14 14 14 14 13 13 13 13 13 12 12 12 11 11 10 9 8 9 10 12 12 12
16 16 16 16 16 16 16 16 16 16 16 15 15 15 14 14 14 14 14 14 14 14 14 14 14 13 13 13 13 13 12 12 12 11 11 10 8 7 8 10 11 12 12
15 15 16 15 16 15 16 16 16 16 16 16 15 15 14 14 14 14 14 14 14 13 13 13 13 13 13 13 12 12 12 12 11 11 10 10 8 8 7 9 10 12 12
15 15 16 15 16 15 16 16 16 16 16 15 15 14 14 14 14 14 14 14 13 13 13 13 13 12 13 13 13 12 12 12 11 10 10 10 9 8 7 7 8 10 11
14 16 16 14 15 16 16 16 16 16 16 16 15 14 13 13 14 14 14 13 14 13 13 13 13 13 13 12 12 12 12 11 10 10 10 10 9 8 7 7 7 9 11
13 14 15 14 16 15 16 16 15 15 16 15 15 15 14 14 14 14 14 13 13 13 14 13 13 13 13 12 12 12 11 11 11 10 10 10 9 8 8 7 7 7 9
13 13 13 15 16 15 15 16 16 15 16 16 15 15 15 16 14 14 14 15 14 14 13 13 13 13 13 13 12 12 12 11 11 10 10 10 10 9 9 7 7 7 9
13 12 12 13 14 14 15 16 16 15 15 17 16 16 14 14 15 16 15 15 14 14 13 13 13 13 14 13 13 13 13 11 11 10 10 10 10 10 9 9 8 7 8
13 13 12 12 13 14 15 15 16 14 14 15 15 15 15 14 14 15 15 15 16 15 14 13 13 14 14 14 13 14 13 13 12 11 10 10 10 10 10 9 9 8 7
12 13 12 12 13 13 14 14 14 14 13 13 13 14 14 14 15 14 15 15 15 15 15 14 14 14 13 13 13 13 14 13 13 12 11 11 10 10 10 10 9 9 8
10 12 13 13 13 13 13 13 13 14 13 12 14 13 13 13 13 14 14 15 14 14 14 14 14 14 13 13 13 13 13 13 12 12 12 11 10 10 10 10 9 9 9
9 10 11 12 14 13 13 13 13 13 13 13 14 14 12 14 12 12 12 13 14 14 14 14 14 14 14 13 13 13 12 13 13 12 12 11 10 10 10 10 9 9 9
7 9 10 11 11 13 13 13 13 13 13 13 13 13 12 13 12 12 12 13 13 14 14 15 15 14 13 13 13 13 12 12 12 12 12 11 11 11 10 10 9 9 9
6 8 9 9 10 11 12 13 13 13 11 12 13 14 13 13 13 13 13 12 14 13 13 15 14 13 13 12 12 12 12 12 11 12 11 11 11 11 10 9 10 9 9
7 6 5 6 8 9 11 12 13 14 12 10 13 14 14 13 12 12 13 14 13 14 14 14 13 12 12 12 11 11 11 11 11 11 11 11 11 11 10 10 9 9 9
4 5 6 7 8 10 10 12 12 12 11 11 12 12 14 13 12 11 12 13 13 13 13 12 13 13 11 12 11 11 10 10 10 11 11 11 11 10 10 10 9 9 9
3 4 6 7 8 8 9 10 12 13 12 11 11 12 12 12 12 11 11 12 12 12 12 12 12 11 11 11 10 10 10 10 10 11 11 10 10 10 10 10 10 10 9
0 1 3 4 5 7 8 8 9 10 10 10 11 11 11 11 11 11 11 11 11 11 11 12 12 11 10 10 9 10 9 10 10 11 11 10 9 10 10 10 10 9 9
-3 -0 1 0 -0 1 2 1 4 3 5 7 8 9 9 10 11 11 11 10 10 10 10 9 9 9 9 9 9 8 8 8 8 9 9 9 9 9 10 10 10 9 9
-3 -1 -2 -1 1 0 0 1 1 3 0 2 3 3 4 5 6 8 10 8 8 8 9 8 9 9 9 9 9 8 6 7 8 8 8 8 9 9 9 9 9 9 9
-3 -4 -4 -3 -2 -3 -1 0 0 0 0 1 0 -0 1 1 2 3 6 5 5 6 7 5 6 5 7 5 5 6 6 6 7 8 8 7 8 8 8 8 8 9 9
-4 -4 -4 -4 -3 -3 -2 -2 -0 -1 -0 -1 -0 0 0 -0 -1 0 3 2 2 2 1 4 2 3 4 3 3 4 4 4 5 8 7 7 7 8 7 7 8 8 8
-4 -4 -4 -4 -4 -4 -3 -3 -3 -3 -2 -4 -3 -2 -2 -2 -1 -1 1 1 1 0 -1 0 1 0 1 0 2 3 2 3 3 4 5 5 6 6 5 5 6 6 7

GFSMA_850_temp_129.txt.gz
Temp
16 16 16 16 16 15 15 16 16 16 16 15 15 16 16 16 16 15 15 15 15 14 14 14 14 14 13 13 14 14 13 13 13 12 12 12 12 12 11 10 9 8 9
14 15 16 16 16 16 15 15 15 16 16 16 15 15 16 15 16 15 15 15 15 15 14 14 14 14 13 13 13 13 13 13 12 12 12 12 12 12 11 11 9 9 9
14 13 14 15 15 15 15 15 15 15 15 15 15 15 15 15 15 15 15 15 15 15 14 14 14 14 14 13 13 13 13 13 12 12 12 12 11 11 11 10 11 10 10
13 13 14 13 14 14 14 15 15 14 14 15 15 15 15 15 15 15 14 15 14 15 15 14 14 14 14 14 13 13 13 12 12 12 11 11 11 11 10 10 10 11 11
14 13 12 14 13 13 13 14 14 15 14 14 14 14 15 15 15 14 14 14 15 14 14 15 15 14 14 14 13 13 13 13 12 12 12 11 10 10 10 9 9 11 9
14 14 13 12 13 12 13 13 14 14 15 15 14 14 14 14 14 14 14 14 14 14 14 14 14 15 14 14 13 13 13 13 12 12 12 11 10 10 9 9 9 10 8
13 13 13 13 11 11 12 12 13 13 14 14 15 14 14 14 14 14 14 14 13 14 14 14 14 14 14 14 14 13 13 12 12 12 12 11 10 10 10 9 9 8 8
12 12 11 11 11 13 12 11 12 13 13 14 14 14 13 13 13 14 14 13 14 13 13 14 13 13 13 13 14 14 13 12 12 12 12 11 11 10 10 9 8 8 7
10 11 11 11 11 12 11 11 11 13 13 13 14 15 13 13 13 14 13 13 13 13 13 13 13 13 13 13 13 13 13 12 12 12 11 11 11 10 10 9 9 8 7
9 9 10 10 10 11 12 10 11 10 12 12 13 13 14 16 14 14 14 14 13 14 14 13 13 13 14 13 13 13 13 13 12 12 12 11 11 10 10 10 9 8 8
6 7 8 9 10 10 11 11 10 12 12 11 12 12 14 15 14 13 13 15 15 14 14 14 14 14 14 13 13 14 13 13 12 12 12 11 11 10 10 10 9 9 8
4 5 6 7 8 9 10 11 10 10 11 11 12 12 13 14 13 13 13 13 14 15 14 14 14 14 14 14 13 14 14 13 13 12 12 11 10 10 10 10 10 9 8
-0 1 4 6 7 8 9 10 11 10 10 12 12 12 13 13 13 13 13 13 13 14 15 15 15 15 15 14 14 14 14 14 13 12 12 12 11 11 10 10 10 9 9
-1 -0 0 1 5 7 8 9 10 11 12 11 12 12 13 12 12 12 11 11 11 12 14 15 16 16 16 16 15 14 15 14 13 12 12 12 12 12 11 10 10 9 10
-2 -1 -0 0 1 4 7 8 10 11 11 12 12 12 13 13 13 12 12 11 9 11 11 15 15 16 17 17 16 15 15 14 13 13 13 13 12 12 12 11 10 10 10
-2 -1 -0 2 3 4 5 7 8 9 11 11 12 11 13 13 13 14 11 10 10 11 11 14 14 14 15 16 16 15 15 14 14 13 13 13 12 12 12 11 11 10 10
-2 -0 1 3 3 3 4 5 7 8 9 10 10 11 12 13 13 12 12 9 11 10 10 12 13 13 14 14 14 15 15 14 13 13 13 13 12 12 12 11 11 11 10
-2 -1 1 2 4 4 4 5 5 6 7 8 9 11 12 12 13 12 12 11 11 10 10 10 12 14 13 13 14 14 14 14 13 13 13 12 12 12 12 11 11 11 10
-3 -2 0 2 3 3 4 4 4 5 7 7 8 10 10 11 10 10 10 11 11 12 11 10 11 11 13 13 13 14 14 13 13 13 12 12 12 12 11 11 11 10 10
-4 -4 -3 -2 -1 0 2 3 4 5 6 7 8 9 9 10 10 10 10 10 12 12 11 10 11 12 11 11 12 13 13 13 13 13 12 12 11 11 11 10 10 10 10
-4 -4 -3 -3 -3 -3 -1 1 1 3 5 5 6 6 7 8 8 8 9 9 9 10 10 10 11 11 11 11 11 12 12 12 12 11 11 11 10 10 10 10 9 10 9
-3 -2 -2 -3 -3 -4 -2 -3 -1 -0 2 2 2 2 3 4 5 7 7 7 8 9 10 11 10 10 10 10 10 11 11 11 10 11 11 10 10 10 10 10 10 9 9
-2 -2 -3 -4 -4 -4 -3 -3 -3 -3 -2 -1 -1 -0 0 0 1 2 3 3 3 7 7 9 9 8 8 9 9 10 9 9 9 10 10 9 10 9 8 8 8 8 8
-3 -3 -5 -5 -5 -6 -4 -3 -2 -3 -3 -3 -3 -3 -2 -2 -1 0 1 2 2 3 4 3 3 4 2 3 3 6 5 8 8 8 7 6 7 7 7 7 7 7 7
-4 -4 -4 -5 -4 -6 -5 -4 -3 -4 -4 -4 -3 -4 -3 -4 -4 -1 -0 0 0 -0 -1 1 1 1 3 2 2 3 3 3 4 5 4 4 5 5 5 5 6 7 7
-6 -6 -6 -6 -7 -6 -6 -5 -4 -3 -3 -4 -5 -5 -5 -5 -4 -3 -2 -3 -2 -2 -2 -1 0 -0 0 0 0 3 0 0 1 1 1 1 3 3 3 4 5 5 5

GFSMA_850_temp_132.txt.gz
Temp
14 14 15 15 15 15 15 15 15 15 14 15 16 16 16 15 15 16 15 15 15 15 14 14 15 14 14 13 13 13 13 13 13 13 12 12 12 12 12 11 10 9 10
14 13 13 14 14 15 15 15 15 15 15 15 15 15 16 16 15 15 15 15 15 15 15 14 14 14 14 14 13 13 13 13 13 12 12 12 12 12 12 12 11 8 9
14 13 13 14 13 14 14 14 15 15 15 15 15 15 15 15 16 15 15 15 15 15 15 14 14 14 14 14 13 13 13 13 13 12 12 12 11 11 11 11 11 10 8
14 14 14 15 13 12 13 13 14 14 15 15 15 15 14 15 15 15 15 15 14 15 14 14 14 14 14 14 14 13 13 13 12 12 12 12 11 11 11 11 11 10 9
14 14 14 13 15 13 10 12 13 13 13 14 14 15 15 14 14 15 15 15 15 14 14 14 14 14 14 14 14 14 14 13 13 12 12 12 11 11 11 10 10 10 10
13 14 14 13 12 14 15 15 11 12 13 13 13 14 14 15 14 14 14 15 15 14 14 14 14 14 14 14 13 14 13 13 13 13 12 12 11 11 10 10 9 10 9
12 13 13 13 12 13 13 12 12 13 14 12 12 13 13 14 14 14 14 14 14 14 14 14 14 14 14 14 13 13 13 13 13 12 12 12 12 11 10 10 10 10 10
11 11 11 13 12 12 12 11 11 13 12 12 12 12 12 13 14 14 14 14 14 14 14 14 14 13 13 14 14 13 13 13 13 13 12 12 12 11 10 10 10 10 9
10 9 9 10 12 10 11 11 10 11 12 12 11 11 13 13 14 15 14 14 14 13 13 13 13 13 13 13 13 13 13 13 13 12 12 12 12 11 11 10 10 10 9
8 8 8 8 10 10 10 11 10 11 11 11 12 12 12 12 14 15 15 15 14 14 14 14 14 13 13 13 13 13 13 13 13 12 12 12 12 11 11 10 10 10 9
5 5 5 6 7 8 9 10 10 10 11 11 10 10 12 11 11 13 15 15 14 14 15 14 14 14 13 13 13 13 13 13 13 13 12 12 12 11 10 10 10 10 9
1 2 1 3 5 6 7 8 8 9 10 11 11 12 12 10 11 11 12 13 14 15 15 15 14 15 15 14 13 13 13 13 13 13 12 12 11 11 11 10 10 10 9
-2 -0 -0 -0 1 4 5 6 7 7 9 10 10 11 9 10 11 10 12 13 14 13 12 13 14 14 14 15 15 14 14 14 13 13 13 12 11 11 11 10 10 10 10
-3 -2 -1 -1 -1 0 1 4 6 8 9 9 10 10 10 10 11 10 12 12 12 11 11 12 11 13 14 14 15 15 15 15 15 14 14 13 12 11 11 11 11 10 10
-3 -3 -2 -1 -1 0 1 1 4 6 8 9 9 9 10 11 11 10 10 12 11 10 11 11 12 12 12 14 15 16 15 15 15 14 14 13 13 12 12 12 12 11 10
-4 -3 -2 -0 0 2 2 2 2 3 6 7 8 8 9 10 11 12 12 12 12 11 10 13 13 13 13 12 14 15 15 15 15 14 14 13 13 12 12 12 12 12 11
-4 -3 -2 -0 1 2 2 2 3 4 5 7 8 9 9 10 12 12 12 13 12 12 9 10 11 12 12 12 12 13 14 15 15 14 14 13 13 12 12 12 11 11 11
-6 -5 -3 -1 1 2 2 3 3 4 4 5 6 6 7 10 12 12 12 12 12 11 10 10 12 12 13 13 12 12 13 13 14 14 14 13 13 12 12 12 12 12 11
-6 -6 -4 -3 -1 0 2 2 3 4 4 5 5 6 8 8 9 10 11 12 11 11 9 10 11 12 11 11 12 13 13 13 14 14 14 14 13 13 12 12 12 11 11
-6 -6 -6 -5 -4 -2 -0 0 1 2 3 3 4 5 7 7 8 8 9 9 9 9 9 9 10 10 10 11 12 13 12 12 14 13 13 14 13 13 12 12 11 11 10
-5 -4 -5 -5 -5 -4 -3 -2 -1 -1 -1 0 1 1 4 5 6 7 7 8 9 9 9 8 9 9 9 9 10 12 12 12 13 13 13 13 13 12 12 11 11 11 10
-5 -4 -4 -4 -4 -5 -3 -2 -1 -2 -2 -2 -2 -1 0 2 2 5 6 7 7 7 8 9 8 9 9 9 9 9 9 10 10 11 12 12 12 11 11 10 10 10 10
-5 -5 -5 -5 -6 -5 -4 -4 -3 -2 -2 -3 -3 -3 -2 -2 -0 0 1 2 3 5 5 5 6 6 8 7 9 9 10 9 9 9 10 10 10 9 9 9 9 9 10
-4 -4 -5 -5 -5 -5 -5 -4 -3 -2 -3 -3 -4 -4 -4 -3 -3 -2 -2 -1 -1 -0 -0 -0 -0 1 2 3 4 4 4 6 6 6 8 8 8 8 8 8 8 8 7
-5 -5 -5 -4 -4 -5 -5 -4 -3 -3 -4 -4 -4 -4 -5 -4 -4 -3 -3 -3 -4 -4 -5 -5 -4 -3 -1 -1 2 1 1 3 3 3 3 4 4 6 6 6 6 7 6
-6 -6 -5 -5 -5 -4 -5 -4 -4 -4 -4 -4 -5 -5 -6 -7 -6 -5 -4 -5 -5 -6 -4 -4 -3 -3 -2 -3 -1 -1 -1 -0 1 -0 0 0 0 1 3 4 4 5 4

GFSMA_850_temp_135.txt.gz
Temp
15 14 13 14 15 14 14 14 15 15 15 15 15 15 15 15 15 15 16 15 14 15 15 15 15 14 14 13 13 13 14 14 13 13 13 13 12 12 12 11 11 11 11
13 13 14 13 14 14 14 14 14 14 15 15 15 15 15 15 15 15 15 15 15 14 14 14 15 14 14 14 13 13 13 13 13 13 13 12 12 12 12 12 11 11 10
13 13 13 14 15 13 13 13 13 13 14 14 15 15 15 15 15 15 15 15 15 14 14 14 14 14 14 14 13 13 13 13 13 13 13 12 12 12 11 12 11 11 10
13 14 13 13 13 14 14 15 14 12 12 14 14 15 15 15 15 15 15 14 15 15 14 14 14 14 14 14 13 13 13 13 13 13 13 13 12 12 11 11 11 11 10
13 13 14 14 13 12 13 14 15 15 13 11 13 14 14 14 14 15 15 15 14 15 14 14 15 14 14 14 14 13 13 13 13 13 12 12 12 12 12 11 11 11 10
13 13 14 14 13 13 12 13 14 13 14 13 12 12 13 14 14 14 15 15 15 15 15 14 14 14 14 14 14 14 13 13 13 12 12 12 12 11 11 12 11 10 10
11 11 12 12 13 12 11 12 13 14 14 13 11 12 12 14 14 14 14 14 14 15 15 15 14 14 14 14 14 14 13 13 13 13 13 12 12 11 11 11 11 10 10
9 10 10 11 11 11 11 10 12 12 12 12 11 11 12 13 14 14 14 15 15 14 15 15 15 14 14 14 14 14 13 13 13 13 13 12 12 12 11 11 11 10 10
7 7 8 9 9 10 11 10 10 11 9 11 10 11 12 13 14 14 14 15 15 14 15 14 15 14 14 14 14 13 13 13 13 13 13 13 12 12 12 11 11 10 10
4 5 6 6 7 7 9 10 9 9 9 10 10 10 11 13 13 14 13 14 15 15 14 15 14 14 14 13 13 14 14 13 13 13 13 12 12 12 11 11 11 10 10
0 -0 2 4 3 4 5 8 9 8 9 9 10 10 10 12 12 12 11 12 12 14 14 15 15 15 14 14 14 14 14 13 13 13 13 12 12 12 11 11 11 10 10
-3 -3 -2 -0 0 1 3 5 7 7 7 8 9 10 10 10 10 10 10 11 11 11 12 14 14 14 14 14 15 14 15 14 15 14 13 12 12 12 12 12 11 10 10
-4 -3 -3 -2 -1 0 0 2 4 4 6 6 8 9 10 10 10 10 11 10 10 11 11 13 14 14 14 14 14 14 14 14 14 14 14 13 13 12 12 12 11 10 10
-5 -4 -3 -3 -2 -1 -0 -0 0 1 2 5 7 8 9 10 10 10 10 10 10 10 10 11 12 13 13 13 14 14 13 14 14 14 14 14 14 13 13 12 12 11 10
-5 -5 -4 -3 -2 -1 -1 -0 -0 0 2 4 5 7 8 9 10 10 10 10 10 10 10 11 11 12 12 13 15 15 13 14 14 14 14 14 14 13 13 13 12 12 10
-6 -5 -4 -3 -2 -1 -0 1 0 1 2 2 5 6 7 9 9 10 10 10 11 10 10 10 11 12 12 12 14 15 14 14 14 14 14 14 14 13 14 13 13 13 12
-6 -6 -5 -4 -2 -1 0 1 1 1 2 3 4 5 6 8 8 9 10 10 10 11 10 10 10 11 11 12 15 14 12 13 14 14 14 15 14 14 13 13 13 13 12
-7 -6 -6 -4 -3 -2 -0 1 2 2 3 3 4 4 5 7 6 7 8 10 10 10 10 11 10 11 12 13 12 11 11 14 13 14 14 14 14 14 13 13 13 13 12
-7 -7 -7 -5 -4 -3 -2 -1 0 2 2 2 3 4 5 6 6 7 8 8 9 9 10 10 10 10 10 10 10 10 11 14 12 13 13 14 14 14 13 13 13 13 12
-5 -6 -5 -6 -5 -4 -3 -2 -2 -1 -0 0 1 2 3 4 5 7 7 8 8 8 9 9 9 9 10 10 10 10 10 11 11 12 12 14 14 14 13 13 13 13 12
-5 -5 -5 -4 -4 -4 -3 -3 -2 -2 -2 -1 -1 -1 -1 -0 2 4 5 6 7 7 8 8 9 9 9 9 9 9 10 10 10 10 11 13 13 14 14 13 13 13 12
-4 -4 -4 -4 -4 -5 -4 -3 -2 -2 -2 -2 -2 -2 -2 -2 -1 -0 0 3 4 6 6 6 6 7 7 7 8 8 9 9 9 9 9 10 13 12 11 12 13 13 12
-4 -4 -4 -5 -5 -5 -5 -4 -3 -2 -2 -4 -4 -3 -3 -3 -2 -2 -1 -0 1 2 2 1 2 2 4 3 6 6 7 6 8 8 8 8 9 9 10 10 10 11 11
-6 -6 -6 -6 -6 -7 -6 -5 -5 -4 -4 -3 -4 -4 -3 -4 -4 -3 -2 -1 -1 -1 -2 -3 -4 -4 -3 -1 1 2 3 3 5 2 5 8 8 9 9 8 9 9 9
-6 -6 -6 -7 -6 -7 -7 -6 -4 -4 -4 -5 -4 -4 -4 -4 -4 -3 -2 -3 -3 -4 -4 -4 -4 -3 -3 -2 -1 -1 -0 0 1 1 1 3 3 3 3 5 4 8 7
-7 -7 -6 -7 -7 -7 -7 -6 -6 -6 -5 -5 -5 -6 -6 -6 -5 -4 -3 -4 -3 -5 -4 -3 -3 -3 -3 -2 -2 -2 -4 -3 -3 -2 -2 -1 -1 -0 1 1 1 2 3

GFSMA_850_temp_138.txt.gz
Temp
14 14 14 14 14 14 14 14 14 14 15 14 14 13 14 14 14 14 15 14 15 15 15 15 14 14 14 14 14 13 14 14 14 14 14 13 13 13 13 12 12 12 11
14 14 14 15 14 13 13 14 14 14 14 14 14 14 13 14 14 13 14 14 15 15 15 15 15 14 14 14 14 13 13 13 14 14 14 13 13 13 13 13 12 12 11
13 13 13 13 12 13 13 13 13 12 13 13 13 13 14 13 13 13 13 13 14 15 15 15 15 14 14 14 14 13 14 13 13 13 13 13 13 13 12 13 12 12 12
13 13 13 13 13 14 12 12 13 13 13 13 13 12 13 14 13 13 13 13 14 14 15 15 15 14 15 14 14 14 13 13 13 13 13 13 13 12 12 12 12 12 11
12 13 13 13 14 13 14 11 10 13 14 14 14 14 15 12 14 14 13 13 13 14 14 14 15 15 14 14 14 14 13 13 13 13 13 13 13 12 12 12 11 11 11
11 11 11 12 12 12 12 12 13 11 13 14 14 12 13 13 13 14 13 13 13 14 14 14 14 15 15 14 14 14 13 13 13 13 12 13 12 12 12 11 11 11 11
9 9 9 9 10 10 10 9 9 11 13 12 12 13 13 12 12 16 14 14 13 13 14 15 14 14 14 15 14 14 14 13 13 13 13 12 13 12 12 11 11 11 10
6 6 7 7 7 7 8 8 8 8 9 10 10 11 11 12 12 13 14 14 13 13 13 14 14 13 14 14 15 14 14 13 13 13 13 13 12 12 12 11 11 11 10
0 2 2 3 4 3 4 4 4 6 8 10 10 11 12 13 14 14 13 13 12 15 15 14 14 15 13 14 13 14 14 14 14 13 13 13 12 12 12 12 11 11 10
-3 -2 -1 -0 1 1 1 2 3 4 5 7 8 10 11 13 15 15 14 12 12 15 15 15 13 15 14 13 13 13 14 14 14 14 13 13 13 13 12 12 12 11 11
-4 -4 -3 -2 -2 -1 0 1 1 2 4 5 7 8 10 11 11 12 13 13 12 14 14 17 15 13 14 13 13 13 14 15 14 14 14 13 13 13 12 12 12 11 11
-5 -4 -4 -3 -3 -2 -1 -0 1 1 1 3 5 6 7 9 11 11 11 12 12 12 12 15 14 13 13 13 13 13 13 15 15 14 14 14 13 13 12 12 12 11 11
-6 -6 -5 -4 -3 -2 -2 -1 -0 0 1 1 2 3 5 7 9 10 11 11 12 11 11 13 14 12 13 13 13 13 13 14 14 14 14 14 14 13 13 13 12 12 11
-7 -6 -5 -5 -4 -3 -2 -1 -1 -0 0 1 1 3 3 5 8 10 10 11 11 11 11 13 15 13 12 12 13 13 12 14 14 14 14 14 14 14 13 13 13 12 12
-7 -7 -6 -5 -3 -3 -2 -1 -1 -0 -0 0 1 2 2 4 6 9 8 10 10 11 10 11 12 13 11 11 12 13 14 14 14 14 14 13 14 14 14 13 13 13 12
-7 -6 -6 -5 -4 -3 -2 -0 1 1 0 0 1 2 2 3 5 8 9 9 9 10 10 11 12 12 12 11 10 12 12 12 13 14 14 14 14 14 14 14 13 13 13
-7 -7 -6 -5 -4 -3 -1 -0 1 1 1 1 2 2 3 4 5 7 7 9 9 10 10 10 10 11 11 11 10 10 11 13 11 14 14 14 15 14 15 14 14 13 13
-8 -7 -7 -5 -4 -4 -3 -2 -1 -0 0 1 2 3 3 4 5 6 7 7 7 8 9 10 10 10 10 10 10 10 10 10 10 10 12 12 14 14 14 14 14 14 13
-7 -7 -6 -6 -5 -4 -4 -3 -2 -2 -1 -1 -0 1 3 4 5 5 6 7 8 8 8 9 10 9 10 10 10 10 10 10 10 10 12 12 13 13 13 14 14 14 14
-5 -6 -7 -6 -5 -5 -4 -4 -3 -3 -3 -2 -2 -1 -1 1 3 4 5 6 7 8 8 8 9 9 9 9 9 10 10 10 10 11 11 10 12 11 12 13 14 14 13
-5 -5 -5 -5 -6 -6 -5 -4 -4 -4 -4 -4 -3 -3 -2 -2 -1 1 3 4 5 6 7 7 7 7 8 9 8 8 8 9 10 10 9 10 10 10 12 12 13 13 14
-5 -4 -5 -5 -5 -5 -5 -5 -4 -4 -4 -4 -4 -4 -4 -4 -3 -1 1 2 2 3 4 4 5 5 6 4 5 5 7 8 7 9 9 9 9 9 9 11 12 13 13
-5 -5 -4 -4 -4 -4 -4 -4 -3 -3 -4 -5 -4 -4 -4 -4 -3 -3 -3 -1 -0 -0 -0 1 1 2 -0 2 3 2 3 3 4 4 5 7 7 8 8 9 10 10 10
-5 -5 -5 -5 -5 -5 -4 -4 -4 -5 -5 -5 -5 -5 -5 -5 -4 -4 -3 -3 -3 -3 -2 -3 -2 -3 -1 -1 -0 -0 0 1 1 1 3 5 5 6 7 5 5 9 9
-7 -6 -6 -6 -6 -6 -5 -4 -4 -4 -5 -6 -6 -6 -6 -6 -5 -4 -3 -3 -4 -5 -6 -6 -6 -5 -4 -3 -2 -0 1 -0 -0 -1 -2 -0 0 2 1 3 1 1 4
-8 -8 -8 -7 -7 -7 -7 -6 -5 -5 -5 -5 -6 -6 -7 -7 -6 -5 -4 -4 -4 -5 -4 -4 -4 -4 -4 -4 -3 -3 -3 -4 -3 -3 -4 -2 -2 -2 -1 -1 -0 -0 -0

GFSMA_850_temp_141.txt.gz
Temp
14 14 14 14 14 14 14 14 14 15 15 15 15 15 16 15 14 16 15 16 16 16 15 15 15 15 15 14 14 14 14 14 14 14 14 14 13 13 13 13 13 13 12
14 14 14 13 12 13 13 14 14 14 14 14 14 14 15 15 15 15 16 15 15 15 15 15 15 15 15 14 14 14 14 14 14 14 14 14 13 13 13 13 13 12 12
13 13 14 13 11 11 12 13 13 14 14 14 14 14 13 14 12 14 15 15 15 15 15 15 15 15 15 15 14 14 14 13 13 14 14 14 13 13 13 13 12 12 12
12 12 12 12 10 11 11 11 12 12 15 14 14 13 13 13 13 11 13 14 15 14 15 15 15 15 15 15 15 14 13 13 13 13 13 13 13 13 13 13 12 12 12
10 11 11 11 10 10 10 10 11 11 11 14 15 15 15 15 13 14 13 14 14 14 14 14 15 15 15 14 15 15 14 13 13 13 13 13 13 13 13 13 12 12 12
5 7 8 9 9 8 8 8 9 10 11 12 12 12 14 15 14 13 15 15 14 14 14 14 14 15 15 14 14 15 14 13 13 13 13 13 13 12 12 12 12 12 12
2 1 2 3 3 4 5 6 6 8 9 10 11 11 11 11 14 14 14 14 14 14 14 16 15 14 14 15 14 14 15 14 13 13 13 13 13 13 12 12 12 12 12
0 0 0 1 1 2 3 4 5 6 7 9 10 12 12 13 12 15 14 14 13 13 13 14 15 15 14 14 15 15 15 15 14 14 14 13 13 13 13 12 12 11 11
-2 -2 -2 -2 -1 0 1 3 4 5 6 8 9 11 13 13 15 14 14 14 13 13 14 14 14 16 15 15 15 15 15 15 14 14 14 14 14 13 13 13 12 11 11
-3 -3 -3 -3 -2 -1 -1 0 2 3 4 6 8 9 10 12 12 14 15 14 14 13 13 14 14 14 15 14 15 14 15 15 15 14 14 14 14 14 13 13 13 12 11
-5 -4 -4 -4 -3 -2 -2 -1 -1 2 3 4 6 7 9 10 11 11 11 13 13 13 13 14 14 14 14 15 15 14 14 16 15 15 14 14 14 14 14 13 13 12 12
-5 -5 -5 -5 -4 -3 -2 -2 -1 -0 1 2 3 5 7 9 9 10 11 12 13 12 13 13 13 13 14 14 15 14 14 15 15 15 15 14 14 14 14 14 13 13 13
-6 -6 -6 -5 -5 -4 -3 -3 -2 -1 -0 0 2 2 4 5 6 7 8 9 11 12 12 13 12 13 13 13 13 14 14 14 14 14 14 14 14 14 14 14 13 13 13
-7 -7 -6 -6 -6 -5 -4 -3 -2 -1 -0 -0 1 1 2 2 4 5 6 7 9 10 11 12 12 12 13 13 14 14 14 14 14 13 14 14 14 14 14 13 13 13 13
-7 -7 -7 -6 -5 -4 -3 -3 -2 -1 -1 -0 0 1 1 2 2 3 4 6 8 9 10 11 11 12 12 12 13 13 14 13 13 13 13 13 13 13 13 13 13 13 12
-8 -8 -7 -6 -5 -4 -3 -2 -1 0 0 -0 -0 0 1 2 2 4 5 7 7 8 8 10 11 11 11 12 13 13 14 12 12 13 12 12 13 13 13 13 14 14 13
-8 -8 -7 -6 -5 -4 -4 -3 -2 -0 -0 -0 0 0 1 2 2 4 5 6 7 7 8 9 10 11 11 10 11 12 12 10 10 10 11 11 12 13 13 13 13 14 14
-8 -8 -8 -7 -6 -5 -4 -4 -3 -3 -1 -1 -0 0 1 2 3 3 5 5 6 7 7 8 9 8 10 11 11 11 10 13 10 10 10 11 13 13 13 12 13 14 13
-8 -7 -6 -6 -6 -6 -6 -5 -5 -4 -4 -3 -3 -2 -1 0 2 3 4 4 5 6 7 7 9 9 9 10 9 10 9 10 10 9 9 10 12 11 11 12 12 13 12
-9 -9 -6 -6 -6 -5 -5 -6 -5 -5 -5 -5 -4 -4 -3 -2 -1 1 3 3 5 6 6 7 7 8 8 7 8 8 8 8 8 9 9 10 10 10 10 10 10 10 10
-8 -9 -7 -6 -6 -5 -5 -5 -4 -4 -4 -4 -4 -4 -4 -6 -4 -2 -0 1 2 3 4 5 5 5 4 7 5 4 7 7 6 8 9 9 9 9 10 9 9 10 13
-7 -8 -9 -7 -6 -6 -5 -4 -4 -3 -4 -3 -4 -4 -4 -4 -6 -4 -3 -2 0 1 1 1 0 1 1 2 3 1 4 5 6 6 6 6 6 7 5 7 9 10 11
-7 -7 -8 -8 -7 -8 -9 -7 -5 -4 -4 -3 -3 -3 -3 -3 -3 -5 -4 -3 -2 -3 -3 -4 -4 -4 -1 -1 0 -1 1 2 3 3 4 3 3 6 5 6 5 9 11
-7 -7 -7 -7 -6 -5 -5 -8 -6 -6 -5 -5 -4 -4 -4 -4 -3 -3 -3 -4 -5 -5 -5 -4 -4 -5 -4 -2 -1 -1 -3 -2 -2 -1 1 2 1 1 2 2 3 6 7
-9 -8 -8 -7 -7 -6 -6 -6 -10 -9 -8 -7 -6 -5 -5 -4 -4 -4 -3 -4 -5 -6 -7 -7 -7 -6 -5 -3 -2 -2 -1 -3 -4 -4 -3 -2 -2 -1 -1 -1 -0 -1 1
-11 -11 -11 -9 -7 -7 -6 -6 -6 -10 -10 -11 -9 -8 -8 -8 -7 -5 -4 -5 -5 -7 -6 -6 -5 -5 -6 -5 -5 -5 -4 -5 -7 -7 -6 -5 -6 -5 -2 -2 -2 -1 -2

GFSMA_850_temp_144.txt.gz
Temp
15 15 15 15 14 12 13 14 14 14 14 14 13 14 14 14 15 15 16 15 15 14 15 15 15 15 15 15 14 15 14 14 14 14 14 14 14 13 13 13 12 12 12
14 14 14 14 14 13 12 12 13 14 15 15 14 14 13 13 14 14 14 15 15 15 14 15 15 15 15 15 14 14 15 14 14 14 14 14 14 14 14 13 13 13 12
12 12 12 13 13 13 13 12 12 11 13 15 13 13 13 14 13 14 15 15 14 13 13 15 15 15 15 14 14 14 14 15 14 14 14 14 14 13 13 13 13 13 12
9 10 11 11 11 12 12 12 12 11 11 12 13 15 15 13 13 14 15 15 15 14 11 14 15 15 15 15 14 14 14 14 14 14 13 13 14 14 13 13 13 12 12
5 5 7 8 9 10 10 10 11 11 10 11 11 12 14 15 15 14 14 15 14 15 13 15 15 15 15 15 15 14 14 14 14 14 13 13 13 13 14 13 13 12 12
3 3 2 3 5 6 7 7 6 8 9 10 11 11 12 13 16 15 15 14 13 15 15 14 14 15 15 15 15 14 14 14 14 14 14 13 13 13 13 13 13 12 12
2 1 1 1 1 2 3 3 5 6 8 9 9 10 11 11 12 14 15 15 15 14 14 14 13 14 15 15 15 15 14 14 14 14 14 14 13 13 13 13 13 13 12
0 -0 -1 -1 -1 -1 0 2 2 3 4 6 7 8 10 11 12 13 15 15 15 15 14 14 13 13 14 14 15 15 15 15 14 14 13 14 14 13 13 13 13 13 13
-2 -2 -3 -3 -3 -3 -2 -1 0 2 3 4 6 7 10 11 12 13 14 14 15 15 14 13 14 14 14 14 14 15 16 15 15 15 14 13 14 14 13 13 13 12 12
-5 -5 -5 -4 -4 -3 -3 -2 -1 0 2 3 4 6 7 8 9 11 13 13 13 13 13 14 14 14 14 14 13 15 15 16 15 15 15 14 14 14 14 13 13 13 13
-6 -6 -5 -5 -5 -5 -4 -3 -3 -2 -1 1 2 4 5 7 8 9 10 12 12 12 12 12 14 14 13 14 14 14 14 15 15 15 15 15 14 14 15 14 14 13 13
-6 -6 -6 -6 -6 -5 -5 -4 -3 -3 -2 -1 0 2 3 4 6 6 9 10 10 11 12 12 12 12 13 13 13 14 14 15 15 15 15 15 15 14 14 14 14 13 13
-7 -7 -7 -6 -6 -6 -5 -5 -4 -3 -3 -2 -1 -0 1 3 3 4 5 6 7 9 11 11 12 12 13 12 13 13 14 15 15 15 15 15 15 14 14 14 14 14 14
-7 -7 -7 -7 -7 -6 -5 -4 -4 -3 -3 -2 -1 -0 0 1 2 2 3 4 6 7 8 9 11 12 12 13 13 13 13 13 14 14 14 14 14 14 14 14 14 14 13
-8 -7 -8 -8 -7 -6 -5 -4 -3 -2 -1 -1 -1 -0 -0 0 1 1 2 3 4 5 6 9 9 11 11 12 12 13 13 13 13 13 13 14 14 14 14 13 13 13 13
-8 -8 -8 -7 -6 -6 -5 -4 -3 -2 -0 -1 -1 -1 -0 0 1 1 2 3 4 5 5 7 9 9 11 11 11 11 12 12 12 12 12 12 12 12 13 12 12 12 12
-7 -8 -8 -7 -7 -7 -5 -5 -4 -3 -2 -2 -1 -1 -0 0 1 2 3 4 4 5 5 6 7 8 9 10 10 10 11 11 11 11 12 12 11 11 12 12 11 12 12
-7 -8 -8 -7 -7 -7 -6 -5 -5 -5 -4 -3 -3 -2 -1 -0 1 2 2 3 4 5 5 6 7 7 8 9 10 9 10 10 10 10 10 10 11 10 9 10 12 11 11
-6 -7 -7 -7 -7 -7 -6 -6 -6 -6 -5 -5 -5 -6 -5 -3 -1 1 2 3 3 4 5 5 6 7 7 8 9 8 8 8 8 9 9 9 9 10 9 10 13 10 10
-5 -6 -6 -6 -7 -6 -6 -6 -5 -5 -5 -6 -6 -6 -7 -6 -4 -2 -0 2 2 3 4 4 5 5 5 5 7 7 8 8 8 7 7 8 9 9 9 10 11 10 10
-5 -6 -6 -6 -6 -7 -8 -6 -5 -5 -5 -5 -5 -5 -7 -8 -7 -4 -3 -2 -0 1 2 2 2 2 3 3 4 4 6 6 7 4 5 5 5 4 6 7 8 9 10
-6 -5 -5 -6 -5 -8 -9 -6 -6 -5 -5 -5 -5 -5 -5 -4 -5 -5 -4 -3 -3 -2 -1 -2 -3 -2 -2 -1 0 -0 2 5 6 4 6 5 3 4 4 4 5 5 8
-7 -6 -6 -6 -6 -7 -9 -8 -7 -6 -6 -6 -6 -5 -5 -5 -5 -5 -5 -4 -4 -4 -4 -4 -4 -5 -4 -4 -2 -1 -1 -1 -1 -0 1 1 1 2 1 2 2 3 5
-7 -7 -7 -7 -7 -8 -8 -9 -7 -6 -6 -6 -7 -7 -6 -6 -6 -6 -5 -5 -5 -4 -5 -5 -4 -5 -5 -5 -4 -5 -4 -4 -3 -3 -2 -2 -1 -1 -1 -1 -1 1 3
-8 -8 -8 -8 -7 -7 -7 -6 -6 -6 -6 -7 -7 -8 -7 -7 -7 -6 -5 -6 -6 -8 -8 -7 -7 -6 -5 -4 -4 -2 -2 -3 -7 -6 -3 -4 -4 -2 -2 -3 -3 -3 -2
-9 -10 -9 -8 -9 -8 -8 -7 -7 -8 -7 -8 -8 -8 -8 -7 -6 -6 -5 -6 -7 -9 -8 -7 -6 -6 -6 -6 -5 -5 -6 -6 -7 -6 -7 -6 -6 -5 -4 -5 -5 -4 -3

GFSMA_850_temp_147.txt.gz
Temp
14 14 14 14 14 14 14 14 14 14 14 14 14 14 14 13 15 14 14 13 13 15 14 15 14 14 15 15 14 14 14 14 14 14 14 14 14 13 13 13 13 13 13
12 13 13 13 13 13 13 13 12 13 13 14 14 14 15 14 14 15 14 13 12 13 14 15 14 14 14 14 15 14 14 14 14 14 14 14 14 14 13 13 12 12 12
10 10 10 11 12 12 12 12 12 11 11 12 14 13 13 13 13 12 13 13 13 13 14 15 16 15 13 14 14 15 14 13 14 13 14 14 14 14 14 13 13 13 12
5 5 7 9 9 10 11 11 11 11 10 10 11 12 12 13 13 14 13 14 13 14 13 15 15 14 14 13 14 14 15 14 14 13 13 14 14 14 14 13 13 13 13
4 4 3 4 6 7 8 8 8 7 9 10 10 10 10 11 13 13 13 13 13 13 13 14 15 15 16 14 13 14 14 14 14 13 13 13 14 14 14 13 13 13 13
4 3 2 2 1 2 3 5 5 6 5 6 8 10 10 11 12 12 13 14 13 12 13 14 14 14 15 15 13 15 15 14 14 14 13 13 13 13 14 14 13 13 12
3 2 1 1 -0 -0 -1 1 3 3 5 4 5 8 10 10 10 12 12 14 14 15 14 13 14 14 14 14 14 14 15 15 14 14 14 13 13 13 13 13 13 13 13
2 1 -1 -1 -2 -3 -3 -3 -2 0 2 3 3 4 6 10 11 12 12 14 14 15 15 15 13 14 13 14 14 14 14 14 14 14 14 14 14 13 13 13 13 13 13
-1 -2 -4 -5 -5 -4 -4 -4 -4 -3 -1 1 2 3 6 8 9 11 12 12 13 14 14 14 14 14 13 13 14 14 14 14 14 14 14 14 14 14 13 13 13 13 13
-4 -5 -6 -5 -5 -5 -5 -5 -5 -4 -3 -2 -1 2 3 4 5 8 11 11 11 12 12 11 12 12 12 13 14 14 14 14 14 13 14 14 14 15 14 13 13 13 13
-6 -6 -6 -6 -6 -6 -6 -5 -5 -4 -4 -3 -2 -1 1 4 5 5 6 10 10 10 11 11 11 11 12 12 12 13 14 14 14 14 14 14 14 14 14 14 13 13 13
-6 -7 -7 -7 -6 -6 -6 -6 -5 -5 -4 -3 -3 -2 -1 1 3 4 5 6 7 9 9 11 11 12 11 12 12 12 13 13 14 14 14 14 14 14 14 14 14 13 13
-6 -7 -7 -7 -7 -7 -7 -6 -5 -4 -4 -3 -3 -2 -2 -0 1 2 2 3 4 5 7 9 10 11 11 11 12 12 12 13 13 13 14 14 14 14 14 14 14 14 13
-6 -7 -8 -7 -7 -7 -6 -5 -5 -4 -3 -2 -2 -2 -2 -1 0 1 1 1 3 4 5 6 8 10 10 10 11 11 11 11 12 12 13 13 13 13 14 14 14 13 14
-6 -7 -7 -7 -7 -7 -6 -5 -4 -3 -3 -1 -2 -2 -1 -1 -0 1 1 1 1 2 3 4 6 9 9 9 10 10 11 12 12 11 11 12 12 13 13 13 13 13 13
-5 -6 -7 -7 -7 -7 -7 -6 -5 -4 -3 -3 -2 -1 -1 -1 -0 0 1 1 2 2 2 3 5 7 8 9 9 9 10 10 11 11 11 10 10 11 12 12 12 12 13
-5 -5 -6 -7 -7 -7 -7 -6 -6 -5 -5 -4 -4 -3 -2 -1 -0 0 0 1 2 3 3 4 6 5 6 7 8 9 9 10 10 10 10 11 11 11 10 10 11 11 12
-4 -5 -5 -6 -6 -7 -7 -6 -6 -6 -6 -6 -6 -6 -5 -3 -2 -1 0 1 2 2 3 5 6 6 6 7 7 7 7 8 8 8 9 10 10 10 9 10 9 11 10
-4 -4 -4 -4 -6 -6 -6 -6 -6 -6 -6 -6 -7 -7 -7 -5 -4 -2 -1 0 1 2 3 4 5 5 5 6 6 6 6 6 8 8 7 9 9 9 9 8 8 10 10
-4 -4 -5 -5 -6 -6 -6 -5 -5 -5 -6 -6 -6 -7 -8 -8 -6 -5 -3 -2 -1 1 2 3 3 4 4 4 4 5 5 4 5 6 4 7 7 6 7 7 8 7 9
-5 -5 -5 -5 -5 -8 -8 -6 -5 -4 -5 -5 -5 -6 -8 -8 -8 -7 -5 -4 -3 -2 -1 0 -1 -1 1 1 2 1 1 2 3 3 3 5 5 6 4 5 4 5 6
-5 -5 -4 -5 -5 -10 -10 -7 -6 -5 -4 -5 -5 -6 -6 -7 -6 -7 -7 -6 -5 -4 -4 -5 -5 -4 -4 -3 -2 -1 -0 1 0 0 1 0 1 4 4 3 4 4 5
-5 -5 -5 -5 -5 -8 -11 -8 -7 -6 -5 -5 -6 -5 -6 -7 -7 -6 -6 -5 -6 -7 -6 -6 -6 -7 -5 -5 -4 -3 -3 -3 -4 -3 -2 -2 -1 -1 -1 -1 -1 -1 0
-5 -6 -6 -6 -5 -7 -6 -7 -8 -7 -7 -6 -7 -7 -6 -6 -7 -6 -5 -5 -6 -6 -7 -7 -8 -7 -7 -6 -5 -5 -5 -6 -5 -3 -2 -2 -3 -4 -5 -4 -2 -2 -2
-7 -6 -7 -6 -6 -6 -7 -7 -7 -7 -7 -8 -8 -11 -8 -7 -8 -7 -6 -6 -7 -8 -9 -8 -8 -8 -7 -6 -5 -4 -4 -4 -5 -7 -5 -5 -5 -4 -5 -5 -4 -4 -5
-9 -7 -7 -7 -7 -6 -7 -7 -7 -8 -7 -8 -9 -9 -11 -9 -8 -7 -6 -7 -8 -9 -8 -7 -7 -7 -7 -8 -8 -8 -9 -9 -9 -8 -11 -9 -8 -6 -4 -5 -5 -6 -5

GFSMA_850_temp_153.txt.gz
Temp
12 12 12 12 12 13 13 13 13 13 12 13 12 12 12 13 12 12 13 13 13 14 14 15 16 16 16 16 13 13 13 13 14 14 14 14 14 14 13 13 13 13 13
10 10 11 11 11 11 11 11 12 12 12 11 12 12 12 12 12 12 13 13 13 13 13 14 16 15 15 15 13 12 13 13 14 13 14 14 13 14 14 13 13 13 13
8 8 8 8 8 9 9 9 9 10 10 10 10 11 11 12 11 12 13 13 12 12 13 13 13 14 15 15 13 13 13 14 15 14 14 14 13 13 14 13 13 13 13
8 8 8 8 8 8 8 7 7 8 8 9 10 10 10 11 11 11 12 13 13 12 12 13 13 14 15 14 14 12 12 13 14 13 13 14 14 13 13 14 13 13 13
7 7 7 7 7 6 6 6 5 3 4 6 7 8 9 10 11 11 11 12 13 13 12 12 13 13 14 14 13 12 13 13 13 14 13 13 13 13 13 13 13 13 12
6 6 6 5 5 4 3 2 1 1 0 1 3 5 7 9 9 10 11 11 12 12 13 13 12 13 13 13 13 13 13 13 12 12 13 13 13 13 13 14 13 13 13
5 5 4 3 2 -0 -2 -3 -3 -3 -2 -2 -3 1 4 7 9 10 10 11 11 12 12 13 13 12 12 13 12 12 12 12 12 13 13 12 13 13 13 13 14 14 13
5 4 3 1 -1 -2 -3 -4 -5 -5 -5 -4 -4 -3 0 4 6 8 10 11 11 12 11 12 12 12 12 12 12 12 12 12 12 12 12 12 12 13 13 13 13 13 13
3 3 1 -1 -2 -3 -5 -7 -6 -5 -5 -5 -4 -4 -1 2 2 6 7 9 10 11 10 10 11 11 11 11 12 12 13 12 12 12 12 12 13 12 13 13 13 13 13
2 2 -0 -2 -4 -4 -5 -6 -6 -6 -6 -5 -5 -4 -3 -2 -1 2 5 6 7 8 8 9 9 9 10 10 11 12 13 13 12 12 12 12 12 12 12 13 12 12 12
1 0 -2 -3 -5 -5 -5 -6 -5 -6 -5 -5 -5 -4 -4 -3 -2 -1 1 3 4 6 7 8 8 8 9 9 10 10 11 11 11 11 11 11 12 12 11 11 12 12 12
1 -1 -2 -4 -4 -4 -5 -5 -6 -5 -5 -5 -4 -4 -4 -3 -1 -1 0 2 2 3 5 6 7 8 8 9 9 9 10 10 11 12 12 12 11 11 11 11 11 11 11
-0 -0 -2 -3 -4 -5 -6 -5 -5 -5 -5 -5 -4 -4 -4 -3 -3 -2 -1 -0 1 2 3 4 4 5 6 7 7 9 9 10 10 11 12 12 11 10 11 11 10 11 11
-1 -2 -2 -2 -4 -5 -5 -5 -5 -5 -5 -5 -4 -4 -3 -3 -3 -2 -2 -1 1 1 2 3 3 3 4 6 6 7 9 9 10 10 11 11 11 11 11 11 11 11 11
-1 -2 -2 -2 -3 -4 -5 -5 -5 -5 -5 -5 -5 -4 -3 -3 -2 -2 -1 -1 -0 1 2 3 3 3 4 4 5 7 8 9 10 10 11 11 11 12 11 10 10 11 10
-1 -1 -2 -1 -2 -3 -5 -5 -5 -5 -6 -6 -6 -6 -4 -3 -2 -2 -1 -1 0 0 1 2 3 3 3 4 4 5 6 8 9 10 10 10 10 11 10 10 10 11 10
-1 -1 -2 -1 -2 -3 -4 -5 -5 -6 -6 -6 -6 -7 -6 -5 -3 -2 -1 -0 0 0 1 1 2 3 3 4 4 4 5 6 7 9 9 10 9 11 10 9 9 9 9
-1 -1 -2 -2 -2 -3 -4 -4 -5 -5 -5 -5 -6 -6 -6 -6 -5 -3 -2 -1 -0 1 1 2 1 2 3 3 3 4 4 4 5 5 7 8 8 9 9 9 9 9 8
-2 -2 -2 -2 -3 -3 -4 -4 -4 -5 -5 -5 -6 -7 -7 -6 -5 -4 -3 -2 -1 0 1 1 0 0 -0 1 2 1 2 3 4 4 4 4 5 6 7 7 7 8 9
-2 -3 -2 -2 -3 -4 -5 -5 -4 -5 -5 -5 -5 -7 -7 -7 -6 -5 -4 -3 -3 -1 -1 -1 -1 -1 -1 -1 0 -0 0 1 1 2 2 2 2 2 3 3 4 5 5
-3 -3 -3 -3 -3 -4 -5 -6 -5 -4 -5 -5 -5 -5 -5 -7 -7 -5 -4 -4 -3 -3 -2 -2 -2 -3 -2 -1 -1 -1 -2 -2 -1 -0 -1 -0 0 0 1 1 2 1 2
-3 -4 -3 -3 -4 -4 -5 -6 -6 -5 -5 -5 -5 -5 -5 -5 -4 -3 -4 -4 -4 -3 -3 -4 -5 -5 -5 -4 -3 -3 -2 -2 -1 -3 -4 -3 -2 -1 -1 -1 -1 -1 0
-4 -4 -4 -4 -4 -5 -6 -6 -6 -5 -5 -5 -6 -6 -6 -6 -5 -5 -5 -3 -3 -4 -4 -4 -4 -5 -4 -5 -5 -4 -4 -2 -4 -5 -4 -4 -5 -4 -4 -4 -3 -3 -2
-5 -5 -5 -5 -5 -5 -6 -7 -7 -6 -6 -6 -7 -7 -7 -7 -7 -5 -4 -4 -4 -4 -5 -5 -5 -6 -6 -6 -4 -4 -5 -4 -5 -4 -3 -4 -5 -7 -7 -6 -5 -3 -3
-6 -6 -6 -6 -6 -7 -7 -7 -7 -7 -6 -6 -6 -7 -7 -8 -8 -7 -5 -5 -6 -7 -7 -7 -7 -7 -6 -6 -6 -6 -4 -5 -4 -5 -4 -4 -5 -7 -9 -7 -6 -5 -4
-7 -7 -7 -7 -7 -7 -8 -8 -8 -7 -7 -7 -7 -7 -7 -8 -8 -7 -6 -7 -7 -9 -9 -8 -7 -6 -6 -6 -5 -5 -6 -5 -6 -7 -8 -8 -7 -6 -7 -7 -6 -6 -6

GFSMA_850_temp_159.txt.gz
Temp
11 11 11 10 10 10 10 11 11 11 11 12 12 12 12 12 12 13 14 15 14 14 14 14 14 14 14 14 15 15 14 15 14 14 14 13 14 13 13 13 13 13 13
10 9 9 9 9 10 10 10 10 10 10 10 11 11 12 12 12 12 12 13 14 14 14 14 14 14 14 14 14 15 15 14 14 14 14 13 13 13 13 13 13 13 13
9 9 9 9 9 9 9 9 9 8 8 9 9 9 9 10 11 11 11 11 12 13 14 13 14 14 14 14 14 14 14 14 14 14 14 14 13 13 12 12 13 13 13
9 8 9 9 9 9 8 7 6 6 6 6 6 7 7 8 8 9 10 10 11 12 13 13 13 13 13 13 13 14 14 14 14 14 15 14 14 15 13 12 12 13 13
8 8 8 8 8 8 7 5 5 4 4 4 3 3 4 6 6 7 8 9 9 10 11 12 12 13 12 12 13 13 13 13 13 13 13 13 13 14 14 12 12 12 13
8 8 7 7 7 6 5 4 3 3 3 2 2 3 4 5 3 4 4 5 7 8 10 11 11 12 12 12 12 12 13 13 13 13 13 13 12 13 13 12 11 12 13
7 6 6 6 6 5 4 2 1 2 2 -1 -2 -0 0 1 1 1 2 3 4 6 8 10 10 9 10 11 11 12 12 12 13 12 13 13 12 13 13 12 11 11 12
6 5 5 5 5 5 4 2 1 -0 -1 -2 -5 -3 -1 1 1 4 3 2 3 4 5 7 9 8 9 10 10 11 12 12 12 12 12 12 13 12 12 12 12 11 11
5 5 4 4 4 4 3 1 -0 -2 -4 -4 -5 -5 -4 -2 -4 1 2 3 2 4 5 5 6 7 8 9 10 10 11 11 11 11 11 11 12 12 12 11 11 12 11
5 4 4 4 4 3 2 0 -1 -2 -3 -4 -5 -5 -5 -5 -4 -3 1 1 1 2 4 5 6 7 8 8 9 9 9 10 10 11 11 11 12 11 11 12 11 11 12
4 4 4 4 3 2 1 -0 -0 -2 -3 -4 -5 -5 -5 -4 -4 -3 -2 -1 -0 1 2 4 6 7 7 7 8 8 9 10 10 10 10 11 11 11 12 11 11 11 12
3 4 4 4 3 2 1 0 -0 -2 -3 -4 -5 -5 -6 -6 -5 -4 -3 -3 -2 -1 0 2 3 4 6 7 7 8 9 9 10 10 9 10 10 11 12 11 11 12 12
4 4 3 3 2 1 0 -0 -1 -2 -2 -4 -5 -7 -7 -6 -5 -4 -3 -3 -2 -1 -0 2 2 2 3 4 6 7 8 10 10 9 10 10 10 11 12 11 11 11 11
4 3 2 2 1 1 0 -1 -2 -2 -2 -4 -5 -6 -7 -7 -5 -4 -4 -3 -2 -1 -0 0 1 2 2 4 4 6 8 9 9 10 9 10 11 11 13 11 11 11 10
2 2 1 1 0 0 -0 -1 -2 -2 -3 -4 -5 -6 -7 -6 -5 -4 -4 -3 -3 -2 0 1 0 1 1 2 3 4 6 6 7 8 9 9 10 10 11 11 10 11 11
1 1 0 -0 -0 0 -1 -1 -1 -2 -3 -3 -4 -6 -7 -6 -6 -5 -4 -3 -2 -2 -1 -0 0 -0 -0 1 3 3 3 5 6 7 8 9 9 9 9 10 10 10 10
0 -0 -0 -1 -1 -0 -1 -1 -2 -2 -2 -3 -4 -4 -6 -6 -6 -5 -4 -3 -2 -1 -1 -1 -0 -0 0 2 2 2 2 4 4 4 5 6 8 8 8 9 9 9 9
-0 -1 -1 -1 -1 -1 -1 -1 -2 -2 -2 -2 -3 -4 -5 -6 -5 -5 -4 -3 -2 -1 -1 -1 -2 -1 -0 -1 -0 1 0 3 3 3 4 4 5 6 6 7 8 8 8
-1 -1 -2 -2 -2 -1 -1 -2 -2 -3 -2 -2 -3 -4 -4 -6 -5 -6 -5 -3 -2 -1 -0 -1 -3 -3 -2 -2 -2 -1 1 -0 -1 2 3 2 4 5 4 5 4 5 5
-1 -1 -2 -3 -2 -2 -2 -3 -3 -3 -3 -2 -3 -4 -3 -5 -5 -6 -5 -4 -4 -3 -3 -3 -4 -4 -4 -4 -3 -4 -2 -1 -1 -1 -1 -1 -0 1 2 2 3 3 3
-2 -2 -3 -3 -3 -3 -3 -3 -3 -3 -3 -3 -3 -4 -4 -4 -4 -5 -5 -5 -4 -4 -4 -5 -5 -5 -4 -4 -5 -5 -5 -4 -4 -4 -3 -3 -2 -1 -1 -1 0 0 1
-2 -3 -3 -3 -3 -3 -4 -4 -4 -4 -3 -4 -4 -4 -4 -5 -5 -4 -4 -4 -4 -4 -5 -5 -6 -6 -6 -6 -6 -5 -5 -5 -5 -5 -5 -4 -4 -4 -4 -4 -4 -3 -2
-3 -3 -3 -4 -4 -4 -4 -4 -5 -5 -4 -4 -4 -5 -4 -5 -5 -5 -5 -4 -4 -4 -4 -5 -5 -6 -7 -7 -6 -6 -4 -4 -5 -6 -6 -6 -7 -6 -6 -5 -5 -4 -3
-4 -4 -4 -4 -5 -5 -5 -5 -5 -5 -5 -4 -5 -5 -5 -5 -6 -6 -5 -4 -4 -4 -5 -5 -5 -6 -6 -6 -6 -6 -6 -6 -7 -6 -5 -7 -7 -7 -7 -7 -6 -5 -5
-5 -5 -5 -6 -6 -6 -6 -6 -6 -6 -6 -5 -5 -6 -6 -6 -6 -6 -6 -5 -6 -6 -7 -7 -7 -7 -7 -6 -6 -5 -5 -6 -6 -6 -6 -7 -7 -8 -8 -7 -7 -7 -6
-5 -6 -6 -7 -7 -7 -7 -7 -7 -7 -7 -6 -6 -7 -7 -7 -7 -7 -6 -7 -6 -8 -8 -7 -7 -7 -6 -6 -6 -5 -6 -6 -6 -7 -8 -8 -8 -7 -11 -8 -8 -7 -6

GFSMA_850_temp_162.txt.gz
Temp
12 11 11 11 10 11 11 11 11 11 12 12 12 11 12 12 12 11 12 13 14 14 14 14 14 13 14 14 14 15 14 14 14 14 15 14 14 14 14 14 14 14 14
10 10 10 10 10 10 10 11 11 10 10 9 9 9 9 10 10 10 10 10 12 13 14 13 14 14 13 14 14 14 15 15 14 14 14 14 13 14 14 13 14 14 13
10 10 10 10 10 10 10 10 10 9 8 6 5 6 6 6 7 7 7 8 8 11 12 14 13 13 13 14 13 14 14 14 14 14 14 14 14 13 13 13 13 13 13
9 9 9 9 9 9 9 10 9 8 6 4 3 3 4 5 5 6 5 4 4 5 8 11 13 13 13 13 13 13 14 14 14 14 14 14 14 13 13 13 13 13 13
9 9 9 9 9 8 8 8 7 5 3 1 1 1 2 3 3 3 3 3 4 4 4 6 10 12 13 13 13 13 13 13 14 14 13 13 13 13 13 14 14 13 13
8 8 8 8 8 7 7 7 6 5 1 -1 1 1 4 3 3 3 4 3 3 3 4 5 6 8 12 12 12 12 12 13 14 13 13 13 13 13 13 13 13 13 13
8 8 7 7 7 6 6 5 3 2 2 -1 -1 -0 2 3 4 3 2 2 3 3 4 4 5 7 9 10 10 12 12 12 13 13 13 13 13 12 12 13 13 12 11
7 7 7 7 6 5 5 4 4 3 -0 -3 -4 -3 1 4 4 4 3 2 2 3 4 4 6 6 8 10 9 10 11 12 12 12 13 13 12 12 13 12 12 11 11
7 6 6 5 5 4 4 4 2 1 -2 -2 -4 -4 -3 -0 -3 2 2 2 2 2 4 4 6 7 8 9 9 9 10 11 11 11 12 12 12 12 12 12 11 11 11
5 5 5 5 5 4 3 1 1 1 -1 -4 -4 -5 -6 -5 -4 -3 0 0 0 2 2 3 4 5 7 8 8 8 9 10 11 11 11 12 12 12 11 11 11 11 11
5 5 5 5 4 3 2 1 1 1 -2 -5 -6 -6 -6 -6 -5 -4 -3 -2 -2 -0 1 2 3 4 6 6 7 8 9 9 10 11 11 11 11 11 11 11 11 11 11
4 4 5 4 3 2 1 1 1 -2 -3 -4 -5 -6 -7 -7 -6 -6 -5 -4 -3 -2 -1 0 1 1 4 5 6 7 8 9 9 10 10 10 11 11 11 11 11 11 11
4 4 4 3 2 1 1 1 -1 -4 -4 -3 -5 -7 -8 -7 -7 -6 -5 -4 -3 -2 -1 1 1 1 2 3 5 6 7 9 9 10 10 10 10 10 10 11 11 11 11
4 4 3 2 2 1 1 0 -3 -3 -4 -4 -5 -6 -7 -7 -7 -7 -6 -5 -4 -2 -1 -0 0 1 1 1 3 4 7 7 9 10 10 11 10 9 10 10 10 9 10
4 3 2 2 1 1 1 0 -2 -1 -4 -6 -5 -6 -7 -7 -6 -6 -5 -5 -4 -3 -2 -1 -0 -0 0 1 2 1 4 5 7 8 8 10 9 9 10 9 11 10 10
3 2 2 1 1 1 1 -0 -2 -1 -2 -6 -6 -5 -6 -7 -6 -5 -5 -5 -4 -3 -3 -1 -1 -1 -0 0 1 1 2 3 4 6 7 8 8 8 9 9 9 10 10
2 1 1 1 1 1 -0 -1 -1 -1 -2 -4 -5 -3 -5 -7 -6 -4 -5 -4 -3 -3 -2 -2 -1 -1 0 0 -0 -1 1 1 2 2 4 6 6 7 7 8 9 9 9
1 1 0 0 0 -0 -1 -1 -1 -2 -2 -2 -3 -3 -3 -6 -6 -4 -4 -4 -3 -3 -2 -2 -2 -2 -2 -3 -2 -2 -2 -2 1 0 2 5 5 4 4 6 7 7 8
1 -0 -1 -0 -0 -1 -1 -1 -2 -2 -2 -2 -3 -4 -3 -4 -4 -4 -4 -4 -4 -4 -3 -3 -4 -4 -4 -4 -4 -4 -3 -6 -3 0 -0 3 4 3 1 4 4 4 5
-1 -1 -1 -1 -1 -1 -1 -2 -2 -2 -2 -3 -3 -4 -4 -4 -3 -4 -4 -4 -5 -5 -5 -5 -5 -5 -5 -5 -5 -6 -4 -5 -6 -5 -6 -3 2 -1 -1 1 1 2 3
-2 -2 -2 -2 -2 -2 -2 -2 -3 -3 -2 -3 -4 -4 -5 -5 -4 -3 -4 -4 -4 -5 -5 -5 -6 -5 -5 -6 -6 -7 -6 -5 -4 -4 -6 -4 -2 -2 -3 -2 -0 -1 1
-2 -2 -2 -2 -2 -2 -3 -3 -3 -3 -3 -3 -4 -4 -5 -4 -5 -5 -4 -4 -4 -4 -6 -6 -6 -7 -7 -6 -6 -6 -6 -6 -7 -6 -6 -7 -6 -5 -4 -3 -3 -3 -2
-2 -3 -2 -2 -2 -3 -3 -3 -3 -3 -3 -3 -4 -4 -4 -5 -5 -5 -4 -4 -4 -4 -4 -6 -6 -6 -7 -7 -8 -7 -7 -6 -7 -7 -8 -8 -9 -8 -7 -6 -4 -4 -3
-3 -3 -3 -3 -3 -4 -4 -4 -4 -4 -4 -4 -4 -4 -5 -5 -5 -5 -5 -5 -4 -5 -5 -6 -6 -6 -6 -6 -7 -8 -9 -8 -8 -7 -8 -10 -11 -10 -11 -8 -7 -6 -5
-3 -4 -4 -4 -5 -5 -5 -5 -5 -5 -5 -5 -5 -5 -5 -5 -6 -6 -6 -6 -6 -6 -8 -8 -8 -8 -7 -6 -5 -8 -8 -8 -10 -7 -6 -11 -11 -11 -10 -8 -8 -7 -7
-5 -5 -5 -6 -6 -6 -6 -6 -6 -8 -7 -8 -7 -6 -6 -6 -6 -6 -6 -6 -6 -7 -8 -7 -7 -7 -7 -7 -6 -6 -7 -9 -10 -9 -8 -12 -12 -11 -9 -11 -9 -8 -8

GFSMA_850_temp_165.txt.gz
Temp
12 11 11 10 11 11 11 11 12 12 12 11 10 10 10 10 9 8 8 10 12 13 14 14 14 14 13 13 13 13 14 14 14 14 14 14 14 14 14 14 15 14 14
11 11 11 11 11 11 11 11 11 11 10 8 8 7 8 8 8 8 8 7 8 10 11 12 14 14 13 13 13 13 13 14 14 14 14 14 14 14 14 13 14 14 14
11 11 10 10 10 10 10 10 10 8 7 6 5 4 5 5 5 5 5 5 5 6 7 7 9 12 13 13 13 12 13 13 14 14 14 14 14 14 14 14 13 14 14
11 10 10 10 10 10 10 9 8 8 5 4 4 4 5 5 4 5 5 5 5 5 6 6 6 7 9 12 12 13 12 13 13 14 14 14 14 14 14 14 14 13 13
10 10 10 9 9 9 9 8 8 7 7 6 5 7 5 5 5 5 5 5 5 4 4 4 5 5 6 9 11 12 13 12 13 13 14 14 14 14 14 13 13 13 13
9 9 9 9 8 8 7 8 8 6 2 2 6 3 6 5 5 6 6 5 5 3 2 4 4 5 6 7 8 11 12 12 12 12 13 13 13 13 13 13 13 13 13
9 9 8 8 8 7 6 6 5 3 2 1 2 5 4 5 5 5 4 5 4 2 1 3 4 5 6 7 8 9 10 11 12 12 13 13 13 13 13 13 13 13 13
8 8 8 7 7 5 2 3 2 4 0 -1 -1 -0 2 5 5 5 4 4 3 1 2 3 3 4 5 7 8 9 10 10 11 12 12 13 12 14 13 13 13 13 13
7 7 7 6 6 3 2 1 1 1 -0 -1 -2 -3 -2 0 -3 2 3 2 2 0 2 2 2 3 5 6 7 8 9 9 9 11 12 12 13 12 12 12 13 12 12
7 7 6 6 5 3 2 1 2 1 0 -3 -3 -4 -4 -5 -4 -3 -0 0 -1 -1 0 1 1 2 3 5 6 7 8 9 9 10 10 11 12 12 12 12 12 12 12
6 6 5 5 3 1 2 2 2 -1 -3 -3 -4 -5 -6 -5 -5 -4 -4 -3 -3 -3 -1 1 1 1 2 3 5 6 8 9 8 9 10 11 12 13 12 11 12 11 12
4 5 4 3 2 3 3 2 1 -3 -4 -3 -3 -6 -6 -6 -6 -6 -5 -5 -4 -3 -1 -0 0 1 1 1 3 5 6 7 9 8 9 10 10 11 12 12 12 10 11
0 3 3 2 2 3 3 2 -1 -2 -4 -2 -3 -6 -7 -6 -6 -6 -6 -5 -5 -3 -1 -0 -0 0 0 1 1 2 5 7 8 8 9 10 9 11 12 11 11 11 11
2 3 2 2 3 3 3 1 -3 -2 -4 -5 -6 -5 -6 -6 -6 -6 -6 -5 -5 -3 -1 -1 -1 -1 -0 0 0 1 2 5 6 7 9 10 9 9 10 11 11 10 10
3 3 3 2 2 2 2 1 -2 -0 -3 -5 -6 -3 -5 -6 -6 -6 -6 -5 -4 -4 -3 -2 -1 -2 -2 -1 -1 -1 2 -0 1 6 7 8 9 9 9 9 10 9 9
3 3 2 2 2 2 2 1 -0 0 -2 -5 -6 -3 -4 -7 -7 -6 -6 -5 -5 -5 -4 -3 -2 -2 -3 -2 -3 -1 0 0 -3 3 4 7 7 8 8 9 9 9 8
3 2 2 2 2 2 2 1 1 -0 -1 -3 -3 -3 -4 -6 -7 -7 -6 -5 -5 -5 -4 -4 -3 -3 -3 -3 -3 -4 -3 -2 -2 -1 -1 2 4 4 6 6 7 8 9
2 1 1 1 1 1 1 1 0 -0 -1 -1 -2 -2 -3 -3 -5 -6 -6 -5 -5 -5 -4 -4 -4 -4 -4 -5 -4 -4 -5 -4 -3 -2 -1 1 2 2 2 3 3 3 5
1 1 1 1 1 1 0 -0 -1 -1 -2 -2 -2 -2 -2 -3 -3 -5 -6 -6 -5 -6 -5 -4 -5 -5 -5 -5 -5 -4 -5 -6 -7 -5 -3 -3 -2 -0 1 1 -1 1 1
0 0 -0 0 0 0 -1 -1 -1 -2 -2 -2 -3 -2 -3 -4 -3 -3 -5 -5 -6 -6 -6 -6 -6 -6 -5 -6 -5 -6 -5 -6 -5 -5 -5 -5 -6 -2 -1 -0 -3 1 -1
-1 -2 -2 -2 -2 -1 -1 -1 -2 -2 -3 -4 -4 -4 -3 -4 -5 -3 -3 -4 -6 -7 -7 -7 -7 -7 -7 -7 -6 -6 -6 -7 -6 -5 -6 -6 -6 -3 -5 -5 -5 -3 -3
-0 -0 -1 -1 -2 -2 -2 -2 -2 -2 -2 -3 -3 -4 -4 -4 -5 -5 -4 -4 -4 -5 -6 -8 -8 -9 -8 -7 -8 -7 -6 -6 -6 -6 -8 -6 -6 -6 -5 -5 -5 -5 -4
-0 -1 -2 -2 -2 -2 -3 -3 -3 -2 -3 -3 -3 -4 -4 -4 -4 -5 -4 -4 -4 -4 -5 -5 -5 -5 -6 -7 -9 -8 -7 -7 -8 -8 -8 -9 -9 -9 -7 -6 -5 -5 -5
-1 -2 -3 -3 -3 -3 -3 -3 -3 -3 -3 -4 -4 -4 -4 -4 -5 -5 -5 -4 -5 -5 -5 -5 -6 -6 -6 -6 -6 -9 -9 -8 -8 -8 -8 -10 -10 -10 -9 -9 -7 -6 -5
-2 -3 -3 -4 -4 -4 -4 -4 -4 -6 -5 -5 -5 -5 -5 -5 -5 -5 -5 -5 -5 -6 -7 -8 -7 -7 -7 -6 -5 -6 -8 -8 -9 -8 -8 -11 -11 -10 -10 -9 -8 -8 -8
-3 -4 -4 -5 -4 -4 -4 -5 -5 -9 -9 -8 -7 -6 -6 -5 -6 -6 -6 -6 -6 -7 -8 -8 -8 -8 -7 -7 -6 -6 -6 -9 -9 -9 -9 -11 -11 -11 -9 -11 -11 -10 -10

GFSMA_850_temp_168.txt.gz
Temp
13 13 12 11 11 11 11 11 11 12 12 11 11 11 10 10 10 10 10 10 11 11 11 11 11 12 13 13 11 12 13 13 13 14 14 13 14 14 14 14 14 14 14
12 12 11 11 11 12 12 12 11 11 11 11 11 11 10 10 9 8 7 7 8 7 6 6 7 8 8 8 12 13 12 12 13 13 13 13 14 14 13 13 14 14 14
12 12 12 12 11 11 11 11 11 10 11 10 11 10 10 9 8 8 7 6 5 5 5 5 5 5 6 7 6 10 13 12 12 13 13 13 14 14 14 13 13 13 14
11 11 11 11 11 11 10 10 10 10 9 9 10 10 10 10 8 7 6 6 5 5 5 5 5 5 6 6 6 6 7 12 12 11 12 13 13 14 14 14 13 14 13
11 11 11 11 10 10 10 10 9 9 8 9 9 10 10 9 7 5 6 6 6 5 4 4 4 4 5 6 6 6 6 7 11 12 12 13 13 13 13 14 14 13 13
11 11 11 10 10 10 9 9 8 7 5 7 8 10 10 8 5 6 6 5 4 4 4 4 3 3 3 5 5 6 6 7 7 11 12 13 13 12 13 13 14 14 14
10 10 10 9 9 9 9 8 8 6 3 6 7 9 9 7 7 5 5 4 4 3 3 3 2 2 2 4 5 6 7 7 7 9 12 12 12 12 12 13 12 13 13
9 10 9 9 8 7 8 7 6 5 3 4 3 4 3 6 6 6 4 3 2 3 2 2 2 2 2 2 3 5 6 7 8 7 9 11 12 11 12 12 12 12 13
9 9 9 8 8 7 6 5 5 4 3 2 -0 -0 -1 -2 -3 2 3 2 2 2 1 1 1 1 1 1 3 4 6 7 8 8 8 10 11 11 11 11 12 12 12
9 8 8 7 7 6 5 4 3 2 1 1 1 -0 -4 -5 -4 -4 -2 -1 -1 -1 -1 -1 0 0 1 1 1 3 5 6 8 8 8 9 10 11 12 12 12 12 12
8 7 7 7 6 6 5 4 2 0 1 2 1 -0 -4 -5 -4 -5 -5 -5 -3 -1 -1 -1 -1 -0 0 1 0 1 3 6 8 8 8 8 9 10 11 12 12 12 11
7 7 6 6 6 5 4 3 1 0 0 1 1 -2 -4 -5 -5 -5 -5 -5 -5 -1 -1 -1 -1 -1 -1 -0 -0 -0 2 4 5 6 7 8 8 9 10 11 11 12 13
5 6 6 5 5 4 4 2 -1 0 -2 -0 -0 -0 -4 -5 -5 -6 -6 -5 -5 -4 -2 -1 -1 -2 -2 -1 -1 0 -0 2 4 6 7 7 8 9 10 10 11 11 11
6 5 5 5 4 4 3 2 -0 -0 -1 -2 -1 -0 -3 -5 -5 -6 -6 -6 -5 -4 -3 -2 -2 -2 -3 -3 -2 -1 -1 -1 2 5 5 6 7 8 9 9 9 10 10
5 5 4 4 3 3 2 1 -0 1 -0 -1 -0 -0 -0 -3 -6 -6 -6 -6 -5 -5 -4 -3 -3 -3 -3 -3 -3 -2 -3 -3 -1 1 1 5 5 7 8 8 9 9 10
5 4 4 3 2 3 2 0 1 1 0 0 0 0 0 -2 -5 -5 -5 -6 -5 -5 -5 -5 -4 -4 -4 -4 -4 -4 -4 -3 -3 -2 -1 1 4 5 6 8 9 9 9
4 4 3 2 2 2 1 1 1 1 1 1 1 1 -0 -1 -2 -4 -5 -6 -6 -5 -5 -5 -5 -4 -4 -4 -4 -4 -3 -5 -4 -5 -3 -0 1 1 3 5 6 8 8
3 3 2 2 2 1 1 1 1 1 1 1 0 -0 -1 -1 -1 -2 -5 -5 -6 -6 -5 -5 -5 -5 -5 -5 -5 -4 -5 -4 -4 -5 -3 -1 0 -3 -0 1 1 2 3
2 2 2 1 0 0 1 0 0 -0 0 0 -0 -1 -1 -1 -1 -1 -3 -4 -6 -6 -6 -6 -6 -6 -6 -6 -6 -5 -5 -5 -5 -5 -3 -3 -4 -5 -2 -1 -1 -1 -1
2 2 1 -0 -0 0 0 -0 -1 -0 -1 -1 -1 -2 -2 -1 -2 -2 -2 -4 -4 -6 -6 -7 -6 -6 -6 -7 -7 -7 -6 -6 -5 -6 -7 -7 -5 -5 -6 -3 -3 -1 -2
1 -1 -1 -1 0 -0 -0 -0 -0 -1 -2 -3 -3 -2 -3 -2 -2 -2 -2 -3 -3 -5 -5 -6 -7 -7 -6 -7 -8 -7 -7 -7 -7 -7 -8 -7 -6 -4 -5 -4 -4 -6 -5
-1 -3 -4 -1 0 -0 -0 -0 -0 -1 -2 -2 -3 -3 -3 -3 -3 -4 -3 -3 -3 -3 -4 -5 -6 -6 -7 -7 -8 -8 -7 -7 -8 -8 -9 -9 -8 -7 -6 -5 -5 -5 -7
-1 -2 -1 -1 -1 -1 -1 -1 -1 -2 -2 -2 -3 -3 -4 -4 -3 -4 -4 -4 -4 -4 -4 -5 -5 -5 -6 -7 -8 -9 -8 -7 -7 -8 -9 -10 -10 -9 -8 -9 -9 -9 -9
-1 -1 -1 -1 -1 -1 -2 -2 -2 -2 -2 -3 -3 -3 -4 -4 -4 -4 -4 -4 -4 -4 -5 -5 -5 -6 -6 -6 -6 -7 -9 -8 -8 -8 -9 -10 -10 -10 -10 -9 -10 -11 -11
-1 -2 -2 -1 -1 -2 -3 -3 -3 -3 -3 -4 -4 -4 -4 -4 -4 -5 -5 -5 -5 -5 -6 -7 -6 -7 -7 -6 -5 -7 -7 -8 -8 -8 -8 -10 -11 -10 -10 -10 -11 -12 -13
-2 -2 -2 -2 -2 -3 -4 -4 -4 -6 -5 -5 -4 -5 -5 -5 -5 -5 -5 -5 -5 -6 -7 -7 -7 -7 -7 -7 -6 -6 -7 -7 -7 -8 -9 -9 -10 -10 -10 -11 -11 -11 -11

GFSMA_850_temp_171.txt.gz
Temp
13 13 13 13 12 12 12 12 12 12 12 12 12 12 12 12 12 12 11 11 10 9 9 7 6 6 7 8 10 12 12 13 12 12 13 13 13 13 13 13 14 14 14
13 12 13 12 11 12 12 12 12 12 12 12 12 11 11 10 10 9 8 8 7 6 5 6 6 7 7 7 7 8 11 12 12 12 12 12 12 13 13 13 13 13 14
12 12 12 11 11 12 12 12 12 12 12 12 12 11 10 10 9 7 5 5 5 5 5 5 5 5 6 6 6 6 5 6 10 11 12 12 12 12 13 13 13 13 13
12 12 11 11 11 12 11 11 11 11 12 12 12 11 11 9 7 7 5 5 5 5 5 5 5 5 5 6 5 6 5 6 6 9 11 13 11 12 12 13 13 13 13
12 11 11 11 11 11 11 11 11 11 12 11 11 10 10 10 8 6 6 5 5 5 5 4 4 4 3 3 4 5 4 5 5 7 8 11 12 12 12 12 13 13 13
11 11 11 11 11 11 11 10 10 10 11 10 10 10 9 9 7 5 5 4 4 3 3 3 4 3 3 3 3 4 5 4 5 6 7 8 11 12 12 12 12 12 13
10 10 11 10 11 11 10 10 9 9 10 10 10 10 9 8 6 5 5 4 4 3 2 2 2 1 1 1 4 4 3 6 6 6 7 7 8 11 12 13 11 12 12
10 10 10 10 10 10 9 9 9 8 8 8 7 7 8 7 6 5 5 3 3 2 2 1 -0 0 0 1 1 2 2 3 6 6 7 7 8 8 10 11 11 11 12
9 9 10 9 9 9 9 8 8 8 7 6 6 4 2 2 3 5 4 3 2 1 -0 -1 -1 -1 -0 0 0 0 0 1 3 5 7 7 8 8 9 10 10 11 11
9 9 9 9 9 9 8 8 8 7 6 5 4 4 2 -1 -2 -1 1 2 -0 -1 -1 -1 -1 -1 -0 -0 -0 -0 -0 1 2 4 6 7 8 8 9 9 10 11 12
8 8 8 8 8 8 7 7 7 7 5 4 4 3 3 0 -4 -5 -5 -3 1 -1 -1 -2 -2 -1 -1 -1 -1 -1 -0 -0 2 3 5 7 8 8 8 9 10 11 12
8 8 8 8 7 7 6 6 6 5 5 4 3 3 2 -2 -5 -5 -5 -5 -4 -1 -2 -2 -2 -2 -3 -2 -2 -2 -2 -1 0 2 4 5 6 8 8 8 9 11 12
8 8 7 7 6 6 5 6 5 4 3 3 2 2 1 -2 -5 -5 -5 -5 -5 -3 -3 -3 -3 -4 -4 -3 -3 -3 -2 -2 -1 0 2 4 5 6 8 8 9 10 11
8 6 6 6 6 5 5 5 4 3 3 3 2 1 1 -1 -3 -5 -6 -5 -5 -5 -4 -3 -3 -4 -4 -4 -3 -3 -3 -3 -2 -1 -0 2 5 6 7 8 9 10 10
6 6 6 5 5 4 4 5 3 3 2 2 1 1 -0 -1 -2 -4 -5 -5 -5 -5 -5 -4 -5 -4 -5 -4 -4 -4 -3 -4 -4 -3 -2 -0 3 5 6 7 8 9 9
6 5 5 5 4 4 4 4 3 2 1 1 0 0 0 0 -0 -3 -4 -4 -5 -5 -5 -5 -5 -5 -5 -5 -5 -5 -4 -4 -4 -4 -3 -1 0 4 5 6 7 8 9
5 5 5 4 4 3 3 3 2 1 1 0 0 -0 0 1 -0 -1 -2 -4 -6 -6 -6 -5 -5 -5 -5 -5 -5 -5 -5 -4 -4 -5 -4 -3 -2 1 3 4 6 7 7
6 5 4 4 3 3 3 2 1 0 -0 -0 -0 -0 0 0 0 -1 -2 -2 -6 -6 -6 -6 -6 -6 -6 -6 -6 -6 -6 -5 -5 -6 -6 -4 -3 -2 -0 1 0 3 6
5 4 3 3 2 2 2 1 0 -0 -0 -0 0 -0 0 0 0 -1 -2 -2 -3 -5 -6 -7 -7 -7 -6 -6 -7 -7 -7 -6 -6 -6 -6 -5 -4 -3 -2 -2 -1 -0 -2
4 3 2 2 2 2 1 0 -0 -1 -1 -0 -1 -0 -0 0 -0 -1 -1 -2 -3 -3 -4 -5 -5 -6 -7 -7 -7 -6 -7 -7 -7 -7 -7 -6 -5 -4 -5 -4 -4 -2 -2
3 2 2 1 1 1 -0 -0 -1 -1 -0 -0 -0 -0 -0 -0 -1 -1 -2 -2 -2 -3 -3 -4 -5 -6 -6 -6 -6 -7 -7 -7 -8 -8 -8 -8 -6 -6 -6 -5 -5 -4 -5
2 1 1 2 0 -1 -1 -1 -1 -1 -1 -0 -0 -1 -1 -1 -2 -2 -2 -2 -2 -3 -3 -4 -4 -5 -6 -7 -7 -7 -7 -6 -8 -9 -9 -9 -8 -8 -10 -11 -11 -9 -8
1 1 2 1 -1 -2 -1 -1 -2 -2 -1 -1 -1 -1 -2 -2 -3 -3 -3 -3 -3 -3 -4 -4 -4 -5 -5 -6 -7 -8 -8 -7 -8 -9 -10 -11 -10 -9 -9 -11 -12 -11 -11
1 1 0 -2 -2 -2 -2 -2 -2 -2 -2 -2 -2 -2 -3 -3 -3 -3 -4 -4 -4 -4 -4 -4 -5 -5 -6 -6 -6 -7 -8 -8 -8 -9 -9 -11 -11 -11 -10 -10 -11 -12 -11
-0 -0 -2 -2 -2 -2 -2 -3 -3 -2 -2 -2 -2 -3 -3 -3 -4 -4 -4 -4 -5 -5 -5 -6 -6 -7 -6 -6 -6 -7 -7 -8 -8 -8 -9 -10 -11 -11 -11 -11 -11 -11 -11
-1 -1 -2 -2 -3 -3 -3 -3 -3 -3 -3 -3 -3 -4 -4 -4 -4 -4 -5 -5 -5 -5 -6 -7 -7 -7 -7 -7 -6 -6 -7 -7 -7 -9 -9 -11 -11 -11 -11 -13 -12 -12 -11

GFSMA_850_temp_174.txt.gz
Temp
15 15 14 14 14 14 14 14 14 14 13 13 13 13 13 13 13 13 12 11 10 10 10 9 8 8 9 10 10 10 9 11 12 12 13 11 12 12 12 13 13 13 13
15 14 14 14 14 14 13 13 13 13 13 13 13 12 12 12 12 12 12 11 10 10 10 8 7 7 7 7 7 7 9 10 10 9 12 13 11 12 12 12 12 12 13
14 13 13 13 13 13 12 12 12 12 12 12 12 11 11 11 9 9 9 9 7 7 6 6 6 7 7 6 6 5 8 7 5 5 7 8 12 12 11 12 12 12 12
13 12 12 12 12 12 11 11 12 12 12 12 11 11 11 10 8 7 6 5 5 5 5 5 5 5 5 5 6 6 6 4 4 5 5 6 8 11 12 11 12 12 12
12 12 12 12 11 11 11 11 12 12 12 12 11 11 10 9 8 6 5 5 5 5 5 5 5 4 4 3 2 3 4 3 3 3 4 4 7 10 11 13 10 12 12
11 11 11 11 11 11 11 11 11 11 11 11 11 10 9 8 7 6 5 5 5 5 4 4 3 3 0 0 2 2 2 4 5 5 5 5 6 7 8 10 13 11 12
10 10 10 11 10 10 10 11 11 11 11 11 10 10 8 7 7 5 5 5 5 4 2 1 -0 -0 -0 -0 -0 1 1 3 3 2 3 5 6 7 7 7 10 12 11
10 9 10 10 10 10 10 10 10 10 10 10 10 10 8 6 5 5 4 3 3 2 1 -1 -1 -1 -0 0 0 -1 -1 -0 1 1 2 4 6 7 7 7 7 10 12
9 9 9 9 9 9 9 9 9 9 9 8 8 9 8 7 6 6 4 2 2 1 -1 -1 -1 -1 -1 -1 -0 -1 -1 1 2 1 2 3 5 6 7 8 8 8 10
8 8 8 8 9 9 9 9 9 8 7 8 8 7 6 5 4 6 5 2 1 0 -1 -2 -2 -2 -1 -1 -1 -1 -1 0 1 1 1 3 4 5 7 8 8 8 9
7 8 8 8 8 8 8 8 8 7 7 7 7 6 5 4 2 -1 -1 2 -0 -1 -2 -2 -2 -3 -2 -2 -2 -2 -2 -1 1 -0 0 2 3 5 7 8 8 8 9
7 7 7 7 8 8 7 7 7 6 6 6 6 6 5 3 0 -4 -5 -4 -1 -2 -3 -3 -3 -4 -3 -4 -3 -3 -3 -2 -2 -2 -1 1 3 4 5 6 8 8 9
7 7 7 7 7 7 7 7 7 6 6 6 6 5 4 3 1 -2 -5 -5 -5 -2 -3 -3 -4 -4 -4 -3 -4 -4 -4 -3 -2 -3 -2 -0 2 3 5 6 8 8 9
6 6 6 7 6 7 6 6 6 6 6 5 5 4 4 3 1 -3 -4 -5 -5 -5 -4 -4 -4 -4 -4 -4 -5 -4 -4 -4 -3 -3 -3 -2 -0 1 4 6 7 8 8
5 6 6 6 6 5 5 5 5 5 5 4 5 4 3 2 1 -2 -3 -4 -5 -5 -5 -4 -5 -4 -5 -5 -5 -4 -5 -4 -4 -4 -4 -3 -1 -1 2 5 6 8 8
5 6 6 5 4 5 5 4 4 4 4 4 4 3 2 2 0 -1 -1 -3 -6 -5 -6 -5 -5 -5 -5 -5 -5 -5 -5 -5 -4 -4 -4 -2 -3 -2 -0 2 5 7 8
6 5 4 3 6 5 4 4 3 3 4 3 3 2 2 1 -0 -0 -1 -2 -5 -5 -6 -5 -6 -6 -5 -6 -6 -6 -5 -5 -5 -5 -5 -4 -3 -2 -0 0 0 3 5
5 4 3 5 5 4 3 3 3 3 3 3 2 1 1 0 0 0 0 -0 -3 -5 -6 -6 -7 -7 -6 -6 -7 -6 -6 -6 -5 -5 -5 -4 -5 -3 -1 -0 -0 0 1
5 3 4 5 4 3 3 2 2 3 3 2 1 0 -0 -0 0 0 0 -0 -2 -3 -3 -5 -6 -6 -6 -6 -6 -7 -7 -7 -6 -6 -5 -4 -4 -6 -5 -4 -3 -2 -1
3 2 4 4 3 3 2 2 2 2 2 1 0 -1 -1 -1 0 0 0 -0 -1 -2 -3 -4 -4 -5 -6 -6 -6 -6 -7 -8 -7 -7 -7 -6 -5 -5 -5 -5 -6 -5 -4
0 2 3 4 2 2 2 2 2 2 1 0 -0 -2 -1 -1 -0 0 -0 -1 -1 -2 -2 -3 -3 -5 -5 -5 -5 -6 -7 -8 -7 -8 -7 -7 -6 -5 -7 -5 -7 -9 -7
1 1 2 3 2 2 1 2 1 1 0 -1 -1 -2 -2 -2 -1 -1 -1 -1 -1 -2 -3 -3 -3 -4 -4 -5 -6 -6 -6 -7 -7 -8 -8 -9 -8 -8 -9 -11 -10 -9 -9
-1 0 2 2 1 1 1 1 0 -0 -1 -2 -2 -2 -2 -1 -2 -2 -2 -2 -2 -3 -3 -3 -3 -3 -4 -5 -5 -6 -7 -7 -8 -9 -10 -10 -10 -10 -10 -10 -11 -10 -10
-1 0 1 1 0 1 1 -0 -0 -1 -2 -3 -3 -3 -2 -2 -2 -2 -2 -2 -3 -3 -3 -3 -4 -4 -4 -5 -5 -6 -7 -8 -8 -9 -10 -11 -11 -11 -11 -11 -11 -11 -11
-0 0 0 0 -0 -0 -0 -1 -2 -2 -3 -3 -3 -3 -3 -3 -3 -3 -3 -3 -3 -4 -4 -4 -5 -6 -6 -6 -5 -6 -7 -8 -8 -8 -9 -10 -11 -11 -11 -11 -11 -12 -11
-0 -0 -1 -2 -2 -2 -1 -2 -3 -3 -4 -4 -3 -4 -4 -3 -3 -4 -4 -4 -4 -5 -4 -5 -6 -6 -6 -6 -6 -6 -7 -7 -7 -9 -9 -10 -11 -11 -11 -12 -12 -12 -12